Wetterdaten: Donnerstag, 03.08.2023
Datum Zeit Temp. Aussen Temp. o. S. Temp +5cm Feuchte Auss Luftdruck Regen Sonnenschein Regendauer Solar Windben Empfang
03.08.2023 00:00 16,8 C 15,0 C 11,7 C 93 % 992,2 hPa 0,0 l/m 0 min 0 min 0 W/m 29,0 km/h (5 Bft) 80,00 %
03.08.2023 00:02 16,8 C 15,0 C 11,7 C 93 % 992,1 hPa 0,0 l/m 0 min 0 min 0 W/m 16,1 km/h (3 Bft) 100,00 %
03.08.2023 00:04 16,8 C 15,0 C 11,7 C 93 % 992,1 hPa 0,0 l/m 0 min 0 min 0 W/m 16,1 km/h (3 Bft) 95,74 %
03.08.2023 00:08 16,8 C 15,0 C 11,7 C 94 % 992,1 hPa 0,0 l/m 0 min 0 min 0 W/m 41,8 km/h (6 Bft) 98,95 %
03.08.2023 00:10 16,8 C 15,0 C 11,7 C 94 % 992,1 hPa 0,0 l/m 0 min 0 min 0 W/m 25,7 km/h (4 Bft) 100,00 %
03.08.2023 00:12 16,7 C 15,0 C 11,7 C 94 % 992,1 hPa 0,0 l/m 0 min 0 min 0 W/m 22,5 km/h (4 Bft) 100,00 %
03.08.2023 00:14 16,7 C 15,0 C 11,7 C 94 % 992,0 hPa 0,0 l/m 0 min 0 min 0 W/m 19,3 km/h (3 Bft) 100,00 %
03.08.2023 00:16 16,7 C 15,0 C 11,7 C 94 % 992,0 hPa 0,0 l/m 0 min 0 min 0 W/m 19,3 km/h (3 Bft) 97,87 %
03.08.2023 00:18 16,7 C 15,0 C 11,7 C 94 % 992,1 hPa 0,0 l/m 0 min 0 min 0 W/m 22,5 km/h (4 Bft) 100,00 %
03.08.2023 00:20 16,7 C 15,0 C 11,7 C 94 % 992,1 hPa 0,0 l/m 0 min 0 min 0 W/m 19,3 km/h (3 Bft) 100,00 %
03.08.2023 00:22 16,7 C 15,0 C 11,7 C 94 % 992,1 hPa 0,0 l/m 0 min 0 min 0 W/m 29,0 km/h (5 Bft) 100,00 %
03.08.2023 00:24 16,7 C 15,6 C 11,7 C 94 % 992,1 hPa 0,0 l/m 0 min 0 min 0 W/m 29,0 km/h (5 Bft) 100,00 %
03.08.2023 00:26 16,7 C 15,6 C 11,7 C 94 % 992,2 hPa 0,0 l/m 0 min 0 min 0 W/m 16,1 km/h (3 Bft) 100,00 %
03.08.2023 00:28 16,7 C 15,6 C 11,7 C 94 % 992,2 hPa 0,0 l/m 0 min 2 min 0 W/m 25,7 km/h (4 Bft) 100,00 %
03.08.2023 00:30 16,8 C 15,6 C 11,7 C 94 % 992,2 hPa 0,0 l/m 0 min 2 min 0 W/m 22,5 km/h (4 Bft) 100,00 %
03.08.2023 00:32 16,8 C 15,6 C 11,7 C 94 % 992,1 hPa 0,0 l/m 0 min 0 min 0 W/m 22,5 km/h (4 Bft) 100,00 %
03.08.2023 00:34 16,8 C 15,6 C 11,7 C 94 % 992,2 hPa 0,0 l/m 0 min 2 min 0 W/m 29,0 km/h (5 Bft) 100,00 %
03.08.2023 00:36 16,8 C 15,6 C 11,7 C 94 % 992,1 hPa 0,0 l/m 0 min 2 min 0 W/m 41,8 km/h (6 Bft) 100,00 %
03.08.2023 00:38 16,8 C 15,6 C 11,7 C 93 % 992,2 hPa 0,0 l/m 0 min 2 min 0 W/m 25,7 km/h (4 Bft) 100,00 %
03.08.2023 00:40 16,9 C 15,6 C 11,7 C 93 % 992,1 hPa 0,0 l/m 0 min 0 min 0 W/m 29,0 km/h (5 Bft) 100,00 %
03.08.2023 00:42 16,9 C 15,6 C 11,7 C 93 % 992,0 hPa 0,0 l/m 0 min 0 min 0 W/m 35,4 km/h (5 Bft) 100,00 %
03.08.2023 00:44 16,9 C 15,6 C 11,7 C 93 % 992,1 hPa 0,0 l/m 0 min 0 min 0 W/m 22,5 km/h (4 Bft) 100,00 %
03.08.2023 00:46 16,9 C 15,6 C 11,7 C 93 % 992,1 hPa 0,0 l/m 0 min 0 min 0 W/m 16,1 km/h (3 Bft) 100,00 %
03.08.2023 00:48 16,9 C 15,6 C 11,7 C 93 % 992,1 hPa 0,0 l/m 0 min 0 min 0 W/m 41,8 km/h (6 Bft) 100,00 %
03.08.2023 00:50 16,9 C 15,6 C 11,7 C 93 % 992,0 hPa 0,0 l/m 0 min 0 min 0 W/m 32,2 km/h (5 Bft) 97,87 %
03.08.2023 00:52 16,9 C 15,6 C 11,7 C 93 % 992,1 hPa 0,0 l/m 0 min 0 min 0 W/m 22,5 km/h (4 Bft) 100,00 %
03.08.2023 00:54 16,9 C 15,6 C 11,7 C 93 % 992,0 hPa 0,0 l/m 0 min 0 min 0 W/m 35,4 km/h (5 Bft) 100,00 %
03.08.2023 00:56 16,9 C 15,6 C 11,7 C 93 % 992,0 hPa 0,0 l/m 0 min 0 min 0 W/m 32,2 km/h (5 Bft) 97,87 %
03.08.2023 00:58 16,9 C 15,6 C 11,7 C 92 % 991,9 hPa 0,0 l/m 0 min 0 min 0 W/m 25,7 km/h (4 Bft) 97,83 %
03.08.2023 01:00 17,0 C 15,6 C 11,7 C 93 % 991,9 hPa 0,0 l/m 0 min 0 min 0 W/m 45,1 km/h (6 Bft) 100,00 %
03.08.2023 01:02 16,9 C 16,1 C 11,7 C 93 % 991,9 hPa 0,0 l/m 0 min 0 min 0 W/m 41,8 km/h (6 Bft) 97,87 %
03.08.2023 01:04 17,0 C 16,1 C 11,7 C 92 % 991,8 hPa 0,0 l/m 0 min 0 min 0 W/m 38,6 km/h (5 Bft) 97,62 %
03.08.2023 01:06 17,0 C 16,1 C 11,7 C 92 % 991,9 hPa 0,0 l/m 0 min 0 min 0 W/m 61,2 km/h (7 Bft) 98,31 %
03.08.2023 01:08 17,0 C 16,1 C 11,7 C 92 % 991,8 hPa 0,0 l/m 0 min 0 min 0 W/m 61,2 km/h (7 Bft) 100,00 %
03.08.2023 01:10 17,0 C 16,1 C 11,7 C 92 % 991,9 hPa 0,0 l/m 0 min 0 min 0 W/m 16,1 km/h (3 Bft) 93,62 %
03.08.2023 01:12 17,0 C 16,1 C 11,7 C 92 % 991,8 hPa 0,0 l/m 0 min 2 min 0 W/m 35,4 km/h (5 Bft) 91,49 %
03.08.2023 01:14 17,1 C 16,1 C 11,7 C 92 % 991,8 hPa 0,2 l/m 0 min 2 min 0 W/m 29,0 km/h (5 Bft) 95,65 %
03.08.2023 01:16 17,0 C 15,6 C 11,7 C 92 % 991,8 hPa 0,0 l/m 0 min 2 min 0 W/m 54,7 km/h (7 Bft) 95,74 %
03.08.2023 01:18 17,0 C 15,6 C 11,7 C 92 % 991,8 hPa 0,0 l/m 0 min 2 min 0 W/m 35,4 km/h (5 Bft) 93,62 %
03.08.2023 01:20 16,9 C 15,0 C 11,7 C 92 % 991,8 hPa 0,2 l/m 0 min 2 min 0 W/m 35,4 km/h (5 Bft) 95,74 %
03.08.2023 01:22 16,9 C 15,0 C 11,1 C 92 % 991,8 hPa 0,0 l/m 0 min 2 min 0 W/m 32,2 km/h (5 Bft) 95,74 %
03.08.2023 01:24 16,8 C 15,0 C 11,1 C 92 % 991,9 hPa 0,0 l/m 0 min 0 min 0 W/m 25,7 km/h (4 Bft) 95,74 %
03.08.2023 01:26 16,8 C 15,0 C 11,7 C 92 % 991,8 hPa 0,0 l/m 0 min 0 min 0 W/m 25,7 km/h (4 Bft) 95,74 %
03.08.2023 01:28 16,7 C 15,0 C 11,7 C 92 % 991,8 hPa 0,0 l/m 0 min 0 min 0 W/m 25,7 km/h (4 Bft) 95,65 %
03.08.2023 01:30 16,7 C 15,0 C 11,1 C 92 % 991,9 hPa 0,0 l/m 0 min 2 min 0 W/m 22,5 km/h (4 Bft) 95,74 %
03.08.2023 01:32 16,7 C 15,0 C 11,1 C 92 % 991,8 hPa 0,0 l/m 0 min 2 min 0 W/m 51,5 km/h (7 Bft) 93,62 %
03.08.2023 01:34 16,6 C 15,0 C 11,1 C 92 % 991,8 hPa 0,0 l/m 0 min 2 min 0 W/m 22,5 km/h (4 Bft) 95,74 %
03.08.2023 01:36 16,6 C 15,6 C 11,1 C 92 % 991,8 hPa 0,0 l/m 0 min 2 min 0 W/m 25,7 km/h (4 Bft) 95,74 %
03.08.2023 01:38 16,6 C 15,0 C 11,1 C 93 % 991,7 hPa 0,0 l/m 0 min 2 min 0 W/m 38,6 km/h (5 Bft) 100,00 %
03.08.2023 01:40 16,6 C 15,0 C 11,1 C 93 % 991,8 hPa 0,0 l/m 0 min 2 min 0 W/m 25,7 km/h (4 Bft) 97,83 %
03.08.2023 01:42 16,6 C 15,0 C 11,1 C 93 % 991,8 hPa 0,0 l/m 0 min 2 min 0 W/m 22,5 km/h (4 Bft) 97,87 %
03.08.2023 01:44 16,6 C 15,0 C 11,1 C 93 % 991,8 hPa 0,0 l/m 0 min 2 min 0 W/m 29,0 km/h (5 Bft) 97,87 %
03.08.2023 01:46 16,5 C 15,0 C 11,1 C 93 % 991,8 hPa 0,0 l/m 0 min 2 min 0 W/m 29,0 km/h (5 Bft) 97,87 %
03.08.2023 01:48 16,4 C 15,6 C 11,1 C 93 % 991,9 hPa 0,0 l/m 0 min 2 min 0 W/m 45,1 km/h (6 Bft) 97,87 %
03.08.2023 01:50 16,4 C 15,6 C 11,1 C 93 % 991,7 hPa 0,0 l/m 0 min 2 min 0 W/m 54,7 km/h (7 Bft) 97,87 %
03.08.2023 01:52 16,4 C 15,6 C 11,1 C 93 % 991,8 hPa 0,0 l/m 0 min 2 min 0 W/m 35,4 km/h (5 Bft) 97,87 %
03.08.2023 01:54 16,4 C 15,6 C 11,1 C 93 % 991,8 hPa 0,0 l/m 0 min 2 min 0 W/m 35,4 km/h (5 Bft) 100,00 %
03.08.2023 01:56 16,4 C 15,6 C 11,1 C 93 % 991,8 hPa 0,0 l/m 0 min 2 min 0 W/m 35,4 km/h (5 Bft) 100,00 %
03.08.2023 01:58 16,5 C 15,6 C 11,1 C 93 % 991,7 hPa 0,0 l/m 0 min 2 min 0 W/m 38,6 km/h (5 Bft) 100,00 %
03.08.2023 02:00 16,5 C 15,6 C 11,1 C 93 % 991,8 hPa 0,0 l/m 0 min 2 min 0 W/m 32,2 km/h (5 Bft) 100,00 %
03.08.2023 02:02 16,5 C 15,6 C 11,1 C 93 % 991,9 hPa 0,0 l/m 0 min 0 min 0 W/m 45,1 km/h (6 Bft) 100,00 %
03.08.2023 02:04 16,6 C 15,6 C 11,1 C 93 % 991,8 hPa 0,0 l/m 0 min 0 min 0 W/m 35,4 km/h (5 Bft) 100,00 %
03.08.2023 02:06 16,6 C 15,6 C 11,1 C 93 % 991,8 hPa 0,0 l/m 0 min 0 min 0 W/m 45,1 km/h (6 Bft) 98,28 %
03.08.2023 02:08 16,6 C 16,1 C 11,1 C 93 % 991,8 hPa 0,0 l/m 0 min 0 min 0 W/m 45,1 km/h (6 Bft) 100,00 %
03.08.2023 02:10 16,6 C 16,1 C 11,1 C 93 % 991,8 hPa 0,0 l/m 0 min 0 min 0 W/m 32,2 km/h (5 Bft) 97,87 %
03.08.2023 02:14 16,7 C 16,1 C 11,1 C 92 % 991,8 hPa 0,0 l/m 0 min 4 min 0 W/m 22,5 km/h (4 Bft) 100,00 %
03.08.2023 02:16 16,7 C 16,1 C 11,1 C 92 % 991,8 hPa 0,0 l/m 0 min 2 min 0 W/m 25,7 km/h (4 Bft) 93,62 %
03.08.2023 02:18 16,7 C 16,1 C 11,1 C 92 % 991,9 hPa 0,0 l/m 0 min 0 min 0 W/m 35,4 km/h (5 Bft) 100,00 %
03.08.2023 02:20 16,7 C 16,1 C 11,1 C 92 % 991,9 hPa 0,0 l/m 0 min 0 min 0 W/m 45,1 km/h (6 Bft) 95,74 %
03.08.2023 02:22 16,8 C 16,1 C 11,1 C 92 % 991,8 hPa 0,0 l/m 0 min 0 min 0 W/m 45,1 km/h (6 Bft) 95,74 %
03.08.2023 02:24 16,8 C 16,1 C 11,1 C 92 % 991,8 hPa 0,0 l/m 0 min 0 min 0 W/m 32,2 km/h (5 Bft) 95,65 %
03.08.2023 02:26 16,8 C 16,1 C 11,1 C 92 % 991,9 hPa 0,0 l/m 0 min 0 min 0 W/m 32,2 km/h (5 Bft) 97,87 %
03.08.2023 02:28 16,8 C 16,1 C 11,1 C 91 % 992,1 hPa 0,0 l/m 0 min 2 min 0 W/m 64,4 km/h (8 Bft) 97,87 %
03.08.2023 02:30 16,9 C 16,1 C 11,1 C 91 % 991,9 hPa 0,0 l/m 0 min 2 min 0 W/m 29,0 km/h (5 Bft) 97,87 %
03.08.2023 02:32 16,9 C 16,1 C 11,1 C 91 % 992,0 hPa 0,0 l/m 0 min 2 min 0 W/m 22,5 km/h (4 Bft) 97,87 %
03.08.2023 02:34 16,9 C 16,1 C 11,1 C 92 % 992,1 hPa 0,0 l/m 0 min 2 min 0 W/m 41,8 km/h (6 Bft) 95,74 %
03.08.2023 02:36 16,8 C 16,1 C 11,1 C 91 % 992,5 hPa 0,0 l/m 0 min 2 min 0 W/m 51,5 km/h (7 Bft) 95,74 %
03.08.2023 02:38 16,9 C 16,1 C 11,1 C 92 % 992,2 hPa 0,0 l/m 0 min 2 min 0 W/m 38,6 km/h (5 Bft) 97,83 %
03.08.2023 02:40 16,8 C 15,6 C 11,1 C 91 % 992,1 hPa 0,0 l/m 0 min 2 min 0 W/m 35,4 km/h (5 Bft) 91,49 %
03.08.2023 02:42 16,8 C 15,6 C 11,1 C 92 % 992,3 hPa 0,0 l/m 0 min 2 min 0 W/m 41,8 km/h (6 Bft) 97,87 %
03.08.2023 02:44 16,8 C 15,6 C 11,1 C 92 % 992,2 hPa 0,0 l/m 0 min 2 min 0 W/m 32,2 km/h (5 Bft) 95,74 %
03.08.2023 02:46 16,8 C 15,6 C 11,1 C 92 % 992,2 hPa 0,2 l/m 0 min 2 min 0 W/m 25,7 km/h (4 Bft) 97,87 %
03.08.2023 02:48 16,7 C 15,6 C 11,1 C 93 % 992,2 hPa 0,0 l/m 0 min 2 min 0 W/m 38,6 km/h (5 Bft) 97,87 %
03.08.2023 02:50 16,7 C 15,6 C 11,1 C 93 % 992,3 hPa 0,0 l/m 0 min 2 min 0 W/m 35,4 km/h (5 Bft) 95,74 %
03.08.2023 02:52 16,6 C 15,0 C 11,1 C 93 % 992,5 hPa 0,0 l/m 0 min 2 min 0 W/m 35,4 km/h (5 Bft) 95,65 %
03.08.2023 02:54 16,6 C 15,0 C 11,7 C 93 % 992,4 hPa 0,2 l/m 0 min 2 min 0 W/m 35,4 km/h (5 Bft) 97,87 %
03.08.2023 02:56 16,5 C 15,0 C 11,1 C 93 % 992,4 hPa 0,0 l/m 0 min 2 min 0 W/m 35,4 km/h (5 Bft) 97,87 %
03.08.2023 02:58 16,4 C 14,4 C 11,1 C 94 % 992,5 hPa 0,2 l/m 0 min 2 min 0 W/m 32,2 km/h (5 Bft) 93,62 %
03.08.2023 03:00 16,4 C 14,4 C 11,7 C 94 % 992,5 hPa 0,0 l/m 0 min 2 min 0 W/m 22,5 km/h (4 Bft) 95,74 %
03.08.2023 03:02 16,3 C 14,4 C 11,7 C 94 % 992,5 hPa 0,2 l/m 0 min 2 min 0 W/m 35,4 km/h (5 Bft) 95,74 %
03.08.2023 03:04 16,3 C 14,4 C 11,7 C 94 % 992,5 hPa 0,0 l/m 0 min 2 min 0 W/m 19,3 km/h (3 Bft) 97,92 %
03.08.2023 03:06 16,3 C 14,4 C 11,7 C 95 % 992,6 hPa 0,0 l/m 0 min 2 min 0 W/m 19,3 km/h (3 Bft) 95,74 %
03.08.2023 03:08 16,2 C 14,4 C 11,7 C 95 % 992,7 hPa 0,0 l/m 0 min 2 min 0 W/m 19,3 km/h (3 Bft) 97,87 %
03.08.2023 03:10 16,2 C 14,4 C 11,7 C 95 % 992,6 hPa 0,0 l/m 0 min 2 min 0 W/m 22,5 km/h (4 Bft) 97,83 %
03.08.2023 03:12 16,2 C 14,4 C 11,7 C 95 % 992,7 hPa 0,0 l/m 0 min 2 min 0 W/m 19,3 km/h (3 Bft) 97,87 %
03.08.2023 03:14 16,2 C 14,4 C 11,7 C 95 % 992,8 hPa 0,0 l/m 0 min 2 min 0 W/m 41,8 km/h (6 Bft) 95,74 %
03.08.2023 03:16 16,2 C 14,4 C 11,7 C 95 % 992,7 hPa 0,0 l/m 0 min 0 min 0 W/m 22,5 km/h (4 Bft) 93,62 %
03.08.2023 03:18 16,2 C 15,0 C 11,7 C 96 % 992,8 hPa 0,0 l/m 0 min 0 min 0 W/m 16,1 km/h (3 Bft) 95,74 %
03.08.2023 03:20 16,2 C 15,0 C 11,7 C 96 % 992,8 hPa 0,0 l/m 0 min 0 min 0 W/m 19,3 km/h (3 Bft) 100,00 %
03.08.2023 03:22 16,2 C 15,0 C 11,7 C 96 % 992,9 hPa 0,0 l/m 0 min 0 min 0 W/m 19,3 km/h (3 Bft) 97,87 %
03.08.2023 03:24 16,2 C 15,0 C 11,7 C 96 % 993,0 hPa 0,0 l/m 0 min 0 min 0 W/m 19,3 km/h (3 Bft) 97,87 %
03.08.2023 03:26 16,1 C 15,0 C 11,7 C 96 % 993,0 hPa 0,0 l/m 0 min 0 min 0 W/m 32,2 km/h (5 Bft) 97,87 %
03.08.2023 03:28 16,1 C 15,0 C 11,7 C 96 % 993,0 hPa 0,0 l/m 0 min 0 min 0 W/m 22,5 km/h (4 Bft) 95,74 %
03.08.2023 03:30 16,1 C 15,0 C 11,7 C 96 % 993,1 hPa 0,0 l/m 0 min 0 min 0 W/m 32,2 km/h (5 Bft) 100,00 %
03.08.2023 03:32 16,1 C 15,0 C 11,7 C 96 % 993,1 hPa 0,0 l/m 0 min 0 min 0 W/m 45,1 km/h (6 Bft) 100,00 %
03.08.2023 03:34 16,1 C 15,0 C 11,7 C 96 % 993,2 hPa 0,0 l/m 0 min 0 min 0 W/m 22,5 km/h (4 Bft) 97,87 %
03.08.2023 03:36 16,1 C 15,0 C 11,7 C 96 % 993,1 hPa 0,0 l/m 0 min 0 min 0 W/m 22,5 km/h (4 Bft) 100,00 %
03.08.2023 03:38 16,2 C 15,0 C 11,7 C 96 % 993,2 hPa 0,0 l/m 0 min 0 min 0 W/m 16,1 km/h (3 Bft) 97,87 %
03.08.2023 03:40 16,1 C 15,0 C 11,7 C 96 % 993,2 hPa 0,0 l/m 0 min 0 min 0 W/m 16,1 km/h (3 Bft) 97,87 %
03.08.2023 03:42 16,1 C 15,0 C 11,7 C 96 % 993,5 hPa 0,0 l/m 0 min 0 min 0 W/m 32,2 km/h (5 Bft) 97,87 %
03.08.2023 03:44 16,1 C 15,0 C 11,7 C 96 % 993,2 hPa 0,0 l/m 0 min 2 min 0 W/m 22,5 km/h (4 Bft) 97,87 %
03.08.2023 03:46 16,2 C 15,0 C 11,7 C 96 % 993,2 hPa 0,0 l/m 0 min 0 min 0 W/m 25,7 km/h (4 Bft) 97,83 %
03.08.2023 03:48 16,2 C 15,0 C 11,7 C 96 % 993,3 hPa 0,0 l/m 0 min 0 min 0 W/m 22,5 km/h (4 Bft) 97,87 %
03.08.2023 03:50 16,2 C 15,0 C 11,7 C 96 % 993,4 hPa 0,0 l/m 0 min 0 min 0 W/m 25,7 km/h (4 Bft) 97,87 %
03.08.2023 03:52 16,2 C 15,0 C 11,7 C 96 % 993,4 hPa 0,0 l/m 0 min 0 min 0 W/m 32,2 km/h (5 Bft) 100,00 %
03.08.2023 03:54 16,2 C 15,0 C 11,7 C 96 % 993,3 hPa 0,0 l/m 0 min 2 min 0 W/m 22,5 km/h (4 Bft) 97,87 %
03.08.2023 03:56 16,2 C 15,0 C 11,7 C 96 % 993,3 hPa 0,2 l/m 0 min 2 min 0 W/m 35,4 km/h (5 Bft) 100,00 %
03.08.2023 03:58 16,2 C 15,0 C 11,7 C 96 % 993,3 hPa 0,2 l/m 0 min 2 min 0 W/m 35,4 km/h (5 Bft) 100,00 %
03.08.2023 04:00 16,2 C 15,0 C 11,7 C 96 % 993,4 hPa 0,0 l/m 0 min 2 min 0 W/m 35,4 km/h (5 Bft) 97,83 %
03.08.2023 04:02 16,2 C 15,0 C 11,7 C 96 % 993,4 hPa 0,0 l/m 0 min 2 min 0 W/m 19,3 km/h (3 Bft) 100,00 %
03.08.2023 04:04 16,2 C 15,0 C 11,7 C 96 % 993,4 hPa 0,0 l/m 0 min 2 min 0 W/m 16,1 km/h (3 Bft) 97,96 %
03.08.2023 04:06 16,2 C 15,0 C 11,7 C 96 % 993,4 hPa 0,0 l/m 0 min 2 min 0 W/m 35,4 km/h (5 Bft) 96,61 %
03.08.2023 04:08 16,1 C 15,0 C 11,7 C 96 % 993,4 hPa 0,0 l/m 0 min 2 min 0 W/m 16,1 km/h (3 Bft) 97,14 %
03.08.2023 04:10 16,1 C 15,0 C 11,7 C 96 % 993,5 hPa 0,0 l/m 0 min 2 min 0 W/m 22,5 km/h (4 Bft) 97,87 %
03.08.2023 04:12 16,1 C 15,0 C 11,7 C 96 % 993,5 hPa 0,0 l/m 0 min 2 min 0 W/m 29,0 km/h (5 Bft) 93,48 %
03.08.2023 04:14 16,1 C 15,0 C 11,7 C 96 % 993,5 hPa 0,0 l/m 0 min 2 min 0 W/m 19,3 km/h (3 Bft) 95,74 %
03.08.2023 04:16 16,1 C 15,0 C 11,7 C 96 % 993,6 hPa 0,0 l/m 0 min 2 min 0 W/m 29,0 km/h (5 Bft) 93,62 %
03.08.2023 04:18 16,1 C 14,4 C 11,7 C 96 % 993,5 hPa 0,0 l/m 0 min 2 min 0 W/m 35,4 km/h (5 Bft) 97,87 %
03.08.2023 04:20 16,1 C 14,4 C 11,7 C 96 % 993,6 hPa 0,0 l/m 0 min 2 min 0 W/m 25,7 km/h (4 Bft) 97,87 %
03.08.2023 04:22 16,0 C 14,4 C 11,7 C 96 % 993,5 hPa 0,2 l/m 0 min 2 min 0 W/m 35,4 km/h (5 Bft) 97,87 %
03.08.2023 04:24 16,0 C 14,4 C 11,7 C 96 % 993,6 hPa 0,0 l/m 0 min 2 min 0 W/m 29,0 km/h (5 Bft) 97,87 %
03.08.2023 04:26 16,0 C 14,4 C 11,7 C 96 % 993,5 hPa 0,0 l/m 0 min 2 min 0 W/m 22,5 km/h (4 Bft) 97,83 %
03.08.2023 04:28 16,0 C 14,4 C 11,7 C 96 % 993,7 hPa 0,0 l/m 0 min 2 min 0 W/m 16,1 km/h (3 Bft) 97,87 %
03.08.2023 04:30 16,0 C 14,4 C 11,7 C 96 % 993,7 hPa 0,0 l/m 0 min 2 min 0 W/m 22,5 km/h (4 Bft) 97,87 %
03.08.2023 04:32 16,0 C 15,0 C 11,7 C 96 % 993,8 hPa 0,0 l/m 0 min 0 min 0 W/m 22,5 km/h (4 Bft) 98,15 %
03.08.2023 04:34 16,0 C 15,0 C 11,7 C 96 % 993,7 hPa 0,0 l/m 0 min 0 min 0 W/m 22,5 km/h (4 Bft) 95,74 %
03.08.2023 04:36 16,0 C 15,0 C 11,7 C 96 % 993,7 hPa 0,0 l/m 0 min 0 min 0 W/m 29,0 km/h (5 Bft) 97,87 %
03.08.2023 04:38 16,0 C 15,0 C 11,7 C 96 % 993,8 hPa 0,0 l/m 0 min 0 min 0 W/m 22,5 km/h (4 Bft) 95,74 %
03.08.2023 04:40 16,0 C 15,0 C 11,7 C 96 % 994,0 hPa 0,0 l/m 0 min 0 min 0 W/m 22,5 km/h (4 Bft) 95,74 %
03.08.2023 04:42 16,0 C 15,0 C 11,7 C 96 % 993,7 hPa 0,0 l/m 0 min 0 min 0 W/m 25,7 km/h (4 Bft) 100,00 %
03.08.2023 04:44 16,0 C 15,0 C 11,1 C 96 % 993,9 hPa 0,0 l/m 0 min 0 min 0 W/m 29,0 km/h (5 Bft) 95,74 %
03.08.2023 04:46 16,1 C 15,0 C 11,1 C 96 % 993,7 hPa 0,0 l/m 0 min 0 min 0 W/m 22,5 km/h (4 Bft) 100,00 %
03.08.2023 04:48 16,1 C 15,0 C 11,1 C 96 % 993,8 hPa 0,0 l/m 0 min 0 min 0 W/m 29,0 km/h (5 Bft) 100,00 %
03.08.2023 04:50 16,1 C 15,0 C 11,1 C 96 % 993,8 hPa 0,0 l/m 0 min 0 min 0 W/m 25,7 km/h (4 Bft) 95,74 %
03.08.2023 04:52 16,1 C 15,0 C 11,1 C 96 % 993,9 hPa 0,0 l/m 0 min 0 min 0 W/m 32,2 km/h (5 Bft) 97,87 %
03.08.2023 04:54 16,0 C 15,0 C 11,1 C 96 % 993,9 hPa 0,0 l/m 0 min 0 min 0 W/m 19,3 km/h (3 Bft) 97,87 %
03.08.2023 04:56 16,0 C 15,0 C 11,1 C 96 % 993,8 hPa 0,0 l/m 0 min 0 min 0 W/m 22,5 km/h (4 Bft) 97,83 %
03.08.2023 04:58 16,0 C 15,0 C 11,1 C 96 % 993,9 hPa 0,0 l/m 0 min 0 min 0 W/m 19,3 km/h (3 Bft) 97,87 %
03.08.2023 05:00 16,0 C 15,0 C 11,1 C 96 % 993,9 hPa 0,0 l/m 0 min 0 min 0 W/m 25,7 km/h (4 Bft) 95,74 %
03.08.2023 05:02 16,0 C 15,6 C 11,1 C 95 % 994,0 hPa 0,0 l/m 0 min 0 min 0 W/m 25,7 km/h (4 Bft) 97,87 %
03.08.2023 05:04 16,0 C 15,6 C 11,1 C 95 % 993,8 hPa 0,0 l/m 0 min 0 min 0 W/m 25,7 km/h (4 Bft) 97,56 %
03.08.2023 05:06 16,1 C 15,6 C 11,1 C 95 % 993,9 hPa 0,0 l/m 0 min 0 min 0 W/m 29,0 km/h (5 Bft) 98,31 %
03.08.2023 05:08 16,1 C 15,6 C 11,1 C 95 % 993,9 hPa 0,0 l/m 0 min 0 min 0 W/m 25,7 km/h (4 Bft) 100,00 %
03.08.2023 05:10 16,1 C 15,6 C 11,1 C 95 % 993,9 hPa 0,0 l/m 0 min 0 min 0 W/m 29,0 km/h (5 Bft) 95,74 %
03.08.2023 05:12 16,1 C 15,6 C 11,1 C 95 % 993,9 hPa 0,0 l/m 0 min 0 min 0 W/m 22,5 km/h (4 Bft) 93,62 %
03.08.2023 05:14 16,1 C 15,6 C 11,1 C 95 % 993,9 hPa 0,0 l/m 0 min 0 min 0 W/m 29,0 km/h (5 Bft) 95,74 %
03.08.2023 05:16 16,1 C 15,6 C 11,1 C 95 % 993,8 hPa 0,0 l/m 0 min 0 min 0 W/m 25,7 km/h (4 Bft) 93,48 %
03.08.2023 05:18 16,1 C 15,6 C 11,1 C 95 % 993,9 hPa 0,0 l/m 0 min 0 min 0 W/m 25,7 km/h (4 Bft) 93,62 %
03.08.2023 05:20 16,1 C 15,6 C 11,1 C 95 % 994,0 hPa 0,0 l/m 0 min 0 min 0 W/m 22,5 km/h (4 Bft) 95,74 %
03.08.2023 05:22 16,2 C 15,6 C 11,1 C 95 % 993,8 hPa 0,0 l/m 0 min 0 min 0 W/m 29,0 km/h (5 Bft) 95,74 %
03.08.2023 05:24 16,2 C 15,6 C 11,1 C 94 % 993,9 hPa 0,0 l/m 0 min 0 min 0 W/m 32,2 km/h (5 Bft) 97,87 %
03.08.2023 05:26 16,2 C 15,6 C 11,1 C 94 % 993,8 hPa 0,0 l/m 0 min 0 min 0 W/m 25,7 km/h (4 Bft) 97,87 %
03.08.2023 05:28 16,2 C 15,6 C 11,1 C 94 % 993,9 hPa 0,0 l/m 0 min 0 min 0 W/m 35,4 km/h (5 Bft) 97,87 %
03.08.2023 05:30 16,2 C 15,6 C 11,1 C 94 % 993,9 hPa 0,0 l/m 0 min 0 min 0 W/m 35,4 km/h (5 Bft) 97,83 %
03.08.2023 05:32 16,2 C 15,6 C 11,1 C 94 % 994,0 hPa 0,0 l/m 0 min 0 min 0 W/m 48,3 km/h (6 Bft) 97,87 %
03.08.2023 05:34 16,2 C 15,6 C 11,1 C 94 % 993,9 hPa 0,0 l/m 0 min 0 min 0 W/m 32,2 km/h (5 Bft) 97,87 %
03.08.2023 05:36 16,2 C 15,6 C 11,1 C 94 % 994,0 hPa 0,0 l/m 0 min 0 min 0 W/m 25,7 km/h (4 Bft) 98,18 %
03.08.2023 05:38 16,3 C 15,6 C 11,1 C 93 % 993,9 hPa 0,0 l/m 0 min 0 min 0 W/m 29,0 km/h (5 Bft) 97,87 %
03.08.2023 05:40 16,3 C 15,6 C 11,1 C 93 % 994,1 hPa 0,0 l/m 0 min 0 min 0 W/m 29,0 km/h (5 Bft) 97,87 %
03.08.2023 05:42 16,3 C 15,6 C 11,1 C 93 % 994,2 hPa 0,0 l/m 0 min 0 min 0 W/m 38,6 km/h (5 Bft) 97,87 %
03.08.2023 05:44 16,3 C 15,6 C 11,1 C 93 % 994,2 hPa 0,0 l/m 0 min 0 min 0 W/m 19,3 km/h (3 Bft) 97,87 %
03.08.2023 05:46 16,3 C 15,6 C 11,1 C 93 % 994,2 hPa 0,0 l/m 0 min 0 min 0 W/m 35,4 km/h (5 Bft) 97,83 %
03.08.2023 05:48 16,4 C 15,6 C 11,1 C 93 % 994,2 hPa 0,0 l/m 0 min 0 min 0 W/m 25,7 km/h (4 Bft) 97,87 %
03.08.2023 05:50 16,4 C 15,6 C 11,1 C 93 % 994,4 hPa 0,0 l/m 0 min 0 min 0 W/m 38,6 km/h (5 Bft) 95,74 %
03.08.2023 05:52 16,4 C 15,6 C 11,1 C 93 % 994,3 hPa 0,0 l/m 0 min 0 min 0 W/m 35,4 km/h (5 Bft) 97,87 %
03.08.2023 05:54 16,4 C 15,6 C 11,1 C 93 % 994,2 hPa 0,0 l/m 0 min 0 min 0 W/m 32,2 km/h (5 Bft) 97,87 %
03.08.2023 05:56 16,4 C 15,6 C 11,1 C 93 % 994,3 hPa 0,0 l/m 0 min 0 min 0 W/m 25,7 km/h (4 Bft) 97,87 %
03.08.2023 05:58 16,4 C 15,6 C 11,1 C 92 % 994,3 hPa 0,0 l/m 0 min 0 min 0 W/m 25,7 km/h (4 Bft) 95,74 %
03.08.2023 06:00 16,4 C 15,6 C 11,1 C 92 % 994,4 hPa 0,0 l/m 0 min 0 min 0 W/m 29,0 km/h (5 Bft) 100,00 %
03.08.2023 06:02 16,4 C 15,6 C 11,1 C 92 % 994,5 hPa 0,0 l/m 0 min 0 min 0 W/m 35,4 km/h (5 Bft) 97,87 %
03.08.2023 06:04 16,5 C 15,6 C 11,1 C 92 % 994,4 hPa 0,0 l/m 0 min 0 min 0 W/m 45,1 km/h (6 Bft) 100,00 %
03.08.2023 06:08 16,6 C 15,6 C 11,1 C 92 % 994,3 hPa 0,0 l/m 0 min 0 min 0 W/m 35,4 km/h (5 Bft) 97,92 %
03.08.2023 06:10 16,6 C 15,6 C 11,1 C 92 % 994,3 hPa 0,0 l/m 0 min 0 min 0 W/m 29,0 km/h (5 Bft) 97,87 %
03.08.2023 06:12 16,6 C 15,6 C 11,1 C 92 % 994,2 hPa 0,0 l/m 0 min 0 min 0 W/m 32,2 km/h (5 Bft) 100,00 %
03.08.2023 06:14 16,6 C 15,6 C 11,1 C 92 % 994,3 hPa 0,0 l/m 0 min 0 min 4 W/m 35,4 km/h (5 Bft) 97,87 %
03.08.2023 06:16 16,6 C 15,6 C 11,1 C 92 % 994,3 hPa 0,0 l/m 0 min 0 min 7 W/m 25,7 km/h (4 Bft) 100,00 %
03.08.2023 06:18 16,6 C 15,6 C 11,1 C 92 % 994,4 hPa 0,0 l/m 0 min 0 min 8 W/m 22,5 km/h (4 Bft) 97,14 %
03.08.2023 06:20 16,6 C 15,6 C 11,1 C 92 % 994,5 hPa 0,0 l/m 0 min 0 min 9 W/m 16,1 km/h (3 Bft) 100,00 %
03.08.2023 06:22 16,6 C 15,6 C 11,1 C 92 % 994,4 hPa 0,0 l/m 0 min 0 min 9 W/m 35,4 km/h (5 Bft) 100,00 %
03.08.2023 06:24 16,6 C 15,6 C 11,1 C 92 % 994,5 hPa 0,0 l/m 0 min 0 min 9 W/m 77,2 km/h (9 Bft) 100,00 %
03.08.2023 06:26 16,6 C 15,6 C 11,1 C 92 % 994,4 hPa 0,0 l/m 0 min 0 min 10 W/m 25,7 km/h (4 Bft) 100,00 %
03.08.2023 06:28 16,6 C 15,6 C 11,1 C 91 % 994,5 hPa 0,0 l/m 0 min 0 min 11 W/m 41,8 km/h (6 Bft) 95,74 %
03.08.2023 06:30 16,6 C 16,1 C 11,1 C 91 % 994,5 hPa 0,0 l/m 0 min 0 min 10 W/m 29,0 km/h (5 Bft) 97,87 %
03.08.2023 06:32 16,6 C 16,1 C 11,1 C 91 % 994,4 hPa 0,0 l/m 0 min 0 min 11 W/m 32,2 km/h (5 Bft) 97,87 %
03.08.2023 06:34 16,7 C 16,1 C 11,1 C 91 % 994,7 hPa 0,0 l/m 0 min 0 min 11 W/m 48,3 km/h (6 Bft) 97,83 %
03.08.2023 06:36 16,7 C 16,1 C 11,1 C 91 % 994,6 hPa 0,0 l/m 0 min 0 min 12 W/m 29,0 km/h (5 Bft) 95,74 %
03.08.2023 06:38 16,7 C 16,1 C 11,1 C 91 % 994,6 hPa 0,0 l/m 0 min 0 min 14 W/m 32,2 km/h (5 Bft) 97,87 %
03.08.2023 06:40 16,7 C 16,1 C 11,1 C 91 % 994,6 hPa 0,0 l/m 0 min 0 min 14 W/m 19,3 km/h (3 Bft) 97,87 %
03.08.2023 06:42 16,7 C 16,1 C 11,1 C 91 % 994,6 hPa 0,0 l/m 0 min 0 min 15 W/m 38,6 km/h (5 Bft) 95,74 %
03.08.2023 06:44 16,7 C 16,1 C 11,1 C 91 % 994,7 hPa 0,0 l/m 0 min 0 min 16 W/m 41,8 km/h (6 Bft) 95,74 %
03.08.2023 06:46 16,7 C 16,1 C 11,1 C 91 % 994,6 hPa 0,0 l/m 0 min 0 min 16 W/m 16,1 km/h (3 Bft) 93,48 %
03.08.2023 06:48 16,7 C 16,1 C 11,1 C 91 % 994,7 hPa 0,0 l/m 0 min 0 min 19 W/m 35,4 km/h (5 Bft) 95,74 %
03.08.2023 06:50 16,7 C 16,1 C 11,1 C 91 % 994,6 hPa 0,0 l/m 0 min 0 min 20 W/m 22,5 km/h (4 Bft) 95,74 %
03.08.2023 06:52 16,7 C 16,1 C 11,1 C 91 % 994,9 hPa 0,0 l/m 0 min 0 min 18 W/m 29,0 km/h (5 Bft) 95,74 %
03.08.2023 06:54 16,7 C 16,1 C 11,1 C 91 % 994,8 hPa 0,0 l/m 0 min 0 min 19 W/m 19,3 km/h (3 Bft) 95,74 %
03.08.2023 06:56 16,7 C 16,1 C 11,1 C 91 % 994,8 hPa 0,0 l/m 0 min 0 min 19 W/m 25,7 km/h (4 Bft) 97,87 %
03.08.2023 06:58 16,7 C 16,1 C 11,1 C 91 % 994,8 hPa 0,0 l/m 0 min 0 min 22 W/m 29,0 km/h (5 Bft) 93,62 %
03.08.2023 07:00 16,8 C 16,1 C 11,1 C 91 % 994,8 hPa 0,0 l/m 0 min 0 min 31 W/m 32,2 km/h (5 Bft) 95,65 %
03.08.2023 07:02 16,8 C 16,1 C 11,1 C 91 % 994,9 hPa 0,0 l/m 0 min 0 min 31 W/m 19,3 km/h (3 Bft) 93,62 %
03.08.2023 07:04 16,8 C 16,1 C 11,1 C 91 % 994,8 hPa 0,0 l/m 0 min 0 min 32 W/m 22,5 km/h (4 Bft) 96,00 %
03.08.2023 07:06 16,8 C 16,1 C 11,1 C 91 % 994,8 hPa 0,0 l/m 0 min 2 min 43 W/m 25,7 km/h (4 Bft) 96,55 %
03.08.2023 07:08 16,8 C 16,1 C 11,1 C 91 % 994,7 hPa 0,0 l/m 0 min 2 min 61 W/m 22,5 km/h (4 Bft) 94,29 %
03.08.2023 07:10 16,8 C 16,1 C 11,1 C 91 % 994,8 hPa 0,0 l/m 0 min 0 min 61 W/m 32,2 km/h (5 Bft) 95,74 %
03.08.2023 07:12 16,8 C 16,1 C 11,7 C 91 % 994,7 hPa 0,0 l/m 0 min 0 min 50 W/m 35,4 km/h (5 Bft) 95,74 %
03.08.2023 07:14 16,9 C 16,1 C 11,1 C 91 % 994,8 hPa 0,0 l/m 0 min 0 min 38 W/m 25,7 km/h (4 Bft) 97,87 %
03.08.2023 07:16 16,9 C 16,1 C 11,1 C 91 % 994,7 hPa 0,0 l/m 0 min 2 min 36 W/m 35,4 km/h (5 Bft) 100,00 %
03.08.2023 07:18 16,9 C 16,1 C 11,1 C 91 % 994,8 hPa 0,0 l/m 0 min 2 min 32 W/m 25,7 km/h (4 Bft) 100,00 %
03.08.2023 07:20 16,9 C 16,1 C 11,1 C 91 % 994,7 hPa 0,0 l/m 0 min 2 min 24 W/m 35,4 km/h (5 Bft) 100,00 %
03.08.2023 07:30 16,7 C 14,4 C 11,1 C 92 % 994,9 hPa 0,4 l/m 0 min 5 min 20 W/m 38,6 km/h (5 Bft) 100,00 %
03.08.2023 07:38 16,4 C 15,0 C 11,1 C 93 % 994,9 hPa 0,0 l/m 0 min 5 min 44 W/m 45,1 km/h (6 Bft) 98,78 %
03.08.2023 07:39 16,4 C 15,0 C 11,1 C 93 % 995,0 hPa 0,0 l/m 0 min 1 min 51 W/m 12,9 km/h (3 Bft) 100,00 %
03.08.2023 07:40 16,4 C 15,0 C 11,7 C 93 % 995,0 hPa 0,0 l/m 0 min 1 min 48 W/m 45,1 km/h (6 Bft) 100,00 %
03.08.2023 07:44 16,4 C 15,0 C 11,7 C 94 % 995,1 hPa 0,2 l/m 0 min 4 min 73 W/m 35,4 km/h (5 Bft) 98,31 %
03.08.2023 07:46 16,4 C 15,0 C 11,7 C 94 % 995,1 hPa 0,0 l/m 0 min 2 min 70 W/m 22,5 km/h (4 Bft) 100,00 %
03.08.2023 07:48 16,3 C 15,0 C 11,7 C 94 % 995,0 hPa 0,0 l/m 0 min 2 min 54 W/m 25,7 km/h (4 Bft) 100,00 %
03.08.2023 07:50 16,3 C 14,4 C 11,7 C 94 % 995,2 hPa 0,2 l/m 0 min 2 min 52 W/m 38,6 km/h (5 Bft) 100,00 %
03.08.2023 07:52 16,2 C 14,4 C 11,7 C 94 % 995,2 hPa 0,2 l/m 0 min 2 min 45 W/m 45,1 km/h (6 Bft) 100,00 %
03.08.2023 07:54 16,2 C 14,4 C 11,7 C 95 % 995,1 hPa 0,2 l/m 0 min 2 min 29 W/m 25,7 km/h (4 Bft) 100,00 %
03.08.2023 07:56 16,2 C 14,4 C 11,7 C 95 % 995,2 hPa 0,2 l/m 0 min 2 min 16 W/m 25,7 km/h (4 Bft) 97,87 %
03.08.2023 07:58 16,1 C 14,4 C 11,1 C 95 % 995,2 hPa 0,0 l/m 0 min 2 min 11 W/m 25,7 km/h (4 Bft) 97,87 %
03.08.2023 08:00 16,1 C 14,4 C 11,1 C 95 % 995,3 hPa 0,2 l/m 0 min 2 min 10 W/m 29,0 km/h (5 Bft) 100,00 %
03.08.2023 08:02 16,0 C 14,4 C 11,1 C 95 % 995,2 hPa 0,2 l/m 0 min 2 min 12 W/m 29,0 km/h (5 Bft) 97,87 %
03.08.2023 08:04 16,0 C 14,4 C 11,7 C 95 % 995,2 hPa 0,0 l/m 0 min 2 min 14 W/m 32,2 km/h (5 Bft) 100,00 %
03.08.2023 08:06 15,9 C 14,4 C 11,7 C 96 % 995,3 hPa 0,2 l/m 0 min 2 min 20 W/m 19,3 km/h (3 Bft) 97,87 %
03.08.2023 08:08 15,9 C 14,4 C 11,7 C 96 % 995,4 hPa 0,0 l/m 0 min 2 min 28 W/m 32,2 km/h (5 Bft) 97,87 %
03.08.2023 08:10 15,9 C 14,4 C 11,1 C 96 % 995,6 hPa 0,0 l/m 0 min 0 min 38 W/m 29,0 km/h (5 Bft) 95,74 %
03.08.2023 08:12 15,9 C 14,4 C 11,1 C 96 % 995,3 hPa 0,0 l/m 0 min 2 min 51 W/m 32,2 km/h (5 Bft) 95,74 %
03.08.2023 08:14 15,9 C 14,4 C 11,7 C 96 % 995,4 hPa 0,0 l/m 0 min 2 min 59 W/m 32,2 km/h (5 Bft) 95,65 %
03.08.2023 08:16 15,9 C 15,0 C 11,7 C 96 % 995,4 hPa 0,0 l/m 0 min 0 min 60 W/m 25,7 km/h (4 Bft) 97,87 %
03.08.2023 08:18 15,9 C 15,0 C 11,7 C 96 % 995,6 hPa 0,0 l/m 0 min 2 min 54 W/m 25,7 km/h (4 Bft) 96,00 %
03.08.2023 08:20 15,9 C 15,0 C 11,7 C 96 % 995,6 hPa 0,0 l/m 0 min 2 min 60 W/m 48,3 km/h (6 Bft) 93,62 %
03.08.2023 08:22 16,0 C 15,0 C 11,7 C 96 % 995,6 hPa 0,0 l/m 0 min 2 min 56 W/m 41,8 km/h (6 Bft) 97,87 %
03.08.2023 08:24 16,0 C 15,0 C 11,7 C 97 % 995,6 hPa 0,0 l/m 0 min 2 min 47 W/m 38,6 km/h (5 Bft) 97,87 %
03.08.2023 08:26 16,0 C 15,0 C 11,7 C 97 % 995,7 hPa 0,0 l/m 0 min 2 min 48 W/m 25,7 km/h (4 Bft) 95,74 %
03.08.2023 08:28 16,0 C 15,0 C 11,7 C 97 % 995,8 hPa 0,0 l/m 0 min 2 min 36 W/m 25,7 km/h (4 Bft) 97,87 %
03.08.2023 08:30 16,0 C 15,0 C 11,7 C 97 % 995,9 hPa 0,0 l/m 0 min 2 min 33 W/m 22,5 km/h (4 Bft) 97,96 %
03.08.2023 08:32 15,9 C 15,0 C 11,7 C 97 % 995,9 hPa 0,0 l/m 0 min 2 min 36 W/m 48,3 km/h (6 Bft) 97,83 %
03.08.2023 08:34 15,9 C 15,0 C 11,7 C 97 % 995,7 hPa 0,0 l/m 0 min 2 min 43 W/m 22,5 km/h (4 Bft) 97,22 %
03.08.2023 08:36 15,9 C 15,0 C 11,7 C 97 % 995,9 hPa 0,0 l/m 0 min 2 min 63 W/m 35,4 km/h (5 Bft) 96,55 %
03.08.2023 08:38 15,9 C 15,0 C 11,7 C 97 % 995,9 hPa 0,0 l/m 0 min 2 min 71 W/m 29,0 km/h (5 Bft) 94,29 %
03.08.2023 08:40 15,9 C 15,0 C 11,7 C 97 % 995,9 hPa 0,0 l/m 0 min 2 min 71 W/m 35,4 km/h (5 Bft) 97,87 %
03.08.2023 08:42 16,0 C 15,0 C 11,7 C 97 % 996,0 hPa 0,0 l/m 0 min 2 min 66 W/m 16,1 km/h (3 Bft) 95,74 %
03.08.2023 08:46 16,0 C 15,0 C 11,7 C 97 % 996,0 hPa 0,2 l/m 0 min 4 min 42 W/m 16,1 km/h (3 Bft) 97,60 %
03.08.2023 08:48 16,0 C 15,0 C 11,7 C 97 % 996,1 hPa 0,0 l/m 0 min 2 min 32 W/m 35,4 km/h (5 Bft) 100,00 %
03.08.2023 08:50 16,0 C 15,0 C 11,7 C 97 % 996,1 hPa 0,0 l/m 0 min 2 min 30 W/m 19,3 km/h (3 Bft) 95,74 %
03.08.2023 08:52 15,9 C 15,0 C 11,7 C 97 % 996,2 hPa 0,0 l/m 0 min 2 min 30 W/m 19,3 km/h (3 Bft) 93,62 %
03.08.2023 08:54 16,0 C 15,0 C 11,7 C 97 % 996,2 hPa 0,0 l/m 0 min 2 min 30 W/m 32,2 km/h (5 Bft) 95,74 %
03.08.2023 08:56 15,9 C 15,0 C 11,7 C 97 % 996,3 hPa 0,2 l/m 0 min 2 min 22 W/m 48,3 km/h (6 Bft) 97,87 %
03.08.2023 08:58 15,9 C 15,0 C 11,7 C 97 % 996,3 hPa 0,0 l/m 0 min 2 min 18 W/m 16,1 km/h (3 Bft) 97,87 %
03.08.2023 09:00 15,9 C 15,0 C 11,7 C 97 % 996,4 hPa 0,0 l/m 0 min 2 min 18 W/m 19,3 km/h (3 Bft) 97,87 %
03.08.2023 09:02 15,9 C 15,0 C 11,7 C 97 % 996,5 hPa 0,0 l/m 0 min 2 min 35 W/m 12,9 km/h (3 Bft) 95,74 %
03.08.2023 09:04 15,9 C 15,0 C 11,7 C 97 % 996,5 hPa 0,0 l/m 0 min 0 min 103 W/m 19,3 km/h (3 Bft) 93,62 %
03.08.2023 09:06 16,0 C 15,0 C 11,7 C 97 % 996,5 hPa 0,0 l/m 0 min 0 min 124 W/m 25,7 km/h (4 Bft) 96,55 %
03.08.2023 09:08 16,0 C 15,0 C 11,7 C 97 % 996,4 hPa 0,0 l/m 0 min 0 min 141 W/m 16,1 km/h (3 Bft) 100,00 %
03.08.2023 09:10 16,0 C 15,0 C 11,7 C 97 % 996,5 hPa 0,0 l/m 0 min 0 min 157 W/m 25,7 km/h (4 Bft) 97,87 %
03.08.2023 09:12 16,1 C 15,6 C 12,2 C 97 % 996,6 hPa 0,0 l/m 0 min 0 min 202 W/m 22,5 km/h (4 Bft) 95,74 %
03.08.2023 09:14 16,1 C 15,6 C 12,2 C 98 % 996,6 hPa 0,0 l/m 2 min 0 min 238 W/m 16,1 km/h (3 Bft) 97,87 %
03.08.2023 09:16 16,2 C 15,6 C 12,2 C 97 % 996,8 hPa 0,0 l/m 2 min 0 min 244 W/m 19,3 km/h (3 Bft) 100,00 %
03.08.2023 09:18 16,3 C 15,6 C 12,2 C 98 % 996,7 hPa 0,0 l/m 0 min 0 min 206 W/m 29,0 km/h (5 Bft) 93,62 %
03.08.2023 09:20 16,3 C 16,1 C 12,2 C 98 % 996,8 hPa 0,0 l/m 0 min 0 min 191 W/m 12,9 km/h (3 Bft) 95,74 %
03.08.2023 09:22 16,3 C 16,1 C 12,2 C 98 % 996,8 hPa 0,0 l/m 0 min 0 min 190 W/m 25,7 km/h (4 Bft) 95,65 %
03.08.2023 09:24 16,4 C 16,1 C 12,2 C 98 % 996,9 hPa 0,0 l/m 0 min 0 min 174 W/m 19,3 km/h (3 Bft) 97,87 %
03.08.2023 09:26 16,4 C 16,1 C 12,2 C 98 % 997,0 hPa 0,0 l/m 0 min 0 min 157 W/m 16,1 km/h (3 Bft) 97,87 %
03.08.2023 09:28 16,4 C 16,1 C 12,2 C 98 % 997,0 hPa 0,0 l/m 0 min 0 min 165 W/m 16,1 km/h (3 Bft) 97,87 %
03.08.2023 09:30 16,4 C 16,1 C 12,2 C 98 % 997,1 hPa 0,2 l/m 0 min 0 min 184 W/m 22,5 km/h (4 Bft) 97,87 %
03.08.2023 09:32 16,4 C 16,1 C 12,2 C 98 % 997,1 hPa 0,0 l/m 0 min 0 min 204 W/m 19,3 km/h (3 Bft) 97,87 %
03.08.2023 09:34 16,5 C 16,1 C 12,2 C 98 % 997,1 hPa 0,0 l/m 0 min 0 min 244 W/m 19,3 km/h (3 Bft) 97,83 %
03.08.2023 09:36 16,5 C 16,1 C 12,8 C 98 % 997,1 hPa 0,0 l/m 2 min 0 min 253 W/m 22,5 km/h (4 Bft) 97,87 %
03.08.2023 09:38 16,6 C 16,7 C 12,8 C 97 % 997,1 hPa 0,0 l/m 0 min 0 min 182 W/m 6,4 km/h (2 Bft) 97,87 %
03.08.2023 09:40 16,6 C 16,1 C 12,8 C 97 % 997,2 hPa 0,0 l/m 0 min 0 min 144 W/m 19,3 km/h (3 Bft) 97,87 %
03.08.2023 09:42 16,6 C 16,1 C 12,8 C 97 % 997,2 hPa 0,0 l/m 0 min 0 min 144 W/m 16,1 km/h (3 Bft) 95,74 %
03.08.2023 09:44 16,7 C 16,1 C 12,8 C 97 % 997,3 hPa 0,0 l/m 0 min 0 min 142 W/m 19,3 km/h (3 Bft) 97,87 %
03.08.2023 09:46 16,6 C 16,1 C 12,8 C 97 % 997,3 hPa 0,0 l/m 0 min 0 min 141 W/m 16,1 km/h (3 Bft) 97,83 %
03.08.2023 09:48 16,6 C 16,1 C 12,2 C 97 % 997,3 hPa 0,0 l/m 0 min 0 min 135 W/m 16,1 km/h (3 Bft) 97,87 %
03.08.2023 09:50 16,6 C 16,1 C 12,2 C 97 % 997,4 hPa 0,0 l/m 0 min 0 min 128 W/m 19,3 km/h (3 Bft) 97,87 %
03.08.2023 09:52 16,6 C 16,1 C 12,2 C 97 % 997,4 hPa 0,0 l/m 0 min 0 min 133 W/m 16,1 km/h (3 Bft) 97,87 %
03.08.2023 09:54 16,6 C 16,1 C 12,2 C 97 % 997,4 hPa 0,0 l/m 0 min 0 min 150 W/m 38,6 km/h (5 Bft) 97,87 %
03.08.2023 09:56 16,6 C 16,1 C 12,2 C 97 % 997,5 hPa 0,0 l/m 0 min 0 min 135 W/m 19,3 km/h (3 Bft) 97,87 %
03.08.2023 09:58 16,6 C 16,1 C 12,2 C 97 % 997,5 hPa 0,0 l/m 0 min 0 min 91 W/m 12,9 km/h (3 Bft) 97,83 %
03.08.2023 10:00 16,6 C 16,1 C 12,2 C 97 % 997,5 hPa 0,0 l/m 0 min 0 min 104 W/m 12,9 km/h (3 Bft) 95,74 %
03.08.2023 10:02 16,6 C 16,1 C 12,2 C 97 % 997,5 hPa 0,0 l/m 0 min 0 min 90 W/m 16,1 km/h (3 Bft) 97,87 %
03.08.2023 10:04 16,6 C 16,1 C 12,2 C 97 % 997,5 hPa 0,0 l/m 0 min 2 min 94 W/m 16,1 km/h (3 Bft) 97,87 %
03.08.2023 10:06 16,6 C 16,1 C 12,2 C 97 % 997,5 hPa 0,0 l/m 0 min 0 min 75 W/m 12,9 km/h (3 Bft) 95,74 %
03.08.2023 10:08 16,6 C 16,1 C 12,2 C 96 % 997,7 hPa 0,0 l/m 0 min 2 min 78 W/m 16,1 km/h (3 Bft) 97,87 %
03.08.2023 10:10 16,6 C 15,6 C 12,2 C 96 % 997,6 hPa 0,0 l/m 0 min 2 min 91 W/m 32,2 km/h (5 Bft) 97,87 %
03.08.2023 10:12 16,6 C 15,6 C 12,2 C 96 % 997,6 hPa 0,0 l/m 0 min 0 min 95 W/m 22,5 km/h (4 Bft) 97,83 %
03.08.2023 10:14 16,6 C 15,6 C 12,2 C 96 % 997,7 hPa 0,0 l/m 0 min 0 min 53 W/m 19,3 km/h (3 Bft) 100,00 %
03.08.2023 10:16 16,5 C 15,6 C 12,2 C 96 % 997,7 hPa 0,0 l/m 0 min 2 min 63 W/m 29,0 km/h (5 Bft) 100,00 %
03.08.2023 10:18 16,6 C 15,6 C 12,2 C 96 % 997,8 hPa 0,0 l/m 0 min 2 min 66 W/m 12,9 km/h (3 Bft) 95,74 %
03.08.2023 10:20 16,6 C 15,6 C 12,2 C 96 % 997,7 hPa 0,0 l/m 0 min 2 min 77 W/m 22,5 km/h (4 Bft) 100,00 %
03.08.2023 10:22 16,6 C 15,6 C 12,2 C 96 % 997,8 hPa 0,0 l/m 0 min 2 min 80 W/m 29,0 km/h (5 Bft) 97,87 %
03.08.2023 10:24 16,6 C 15,6 C 12,2 C 96 % 997,8 hPa 0,0 l/m 0 min 2 min 55 W/m 12,9 km/h (3 Bft) 100,00 %
03.08.2023 10:26 16,5 C 15,6 C 12,2 C 96 % 997,8 hPa 0,0 l/m 0 min 2 min 51 W/m 25,7 km/h (4 Bft) 100,00 %
03.08.2023 10:28 16,6 C 15,6 C 12,2 C 96 % 997,8 hPa 0,0 l/m 0 min 2 min 57 W/m 22,5 km/h (4 Bft) 100,00 %
03.08.2023 10:30 16,6 C 15,6 C 12,2 C 96 % 997,9 hPa 0,0 l/m 0 min 2 min 92 W/m 16,1 km/h (3 Bft) 100,00 %
03.08.2023 10:32 16,6 C 16,1 C 12,2 C 96 % 997,9 hPa 0,0 l/m 0 min 0 min 109 W/m 16,1 km/h (3 Bft) 97,87 %
03.08.2023 10:34 16,6 C 16,1 C 12,2 C 96 % 998,0 hPa 0,0 l/m 0 min 2 min 133 W/m 19,3 km/h (3 Bft) 97,87 %
03.08.2023 10:36 16,6 C 16,1 C 12,2 C 96 % 998,0 hPa 0,0 l/m 0 min 0 min 155 W/m 16,1 km/h (3 Bft) 97,87 %
03.08.2023 10:38 16,6 C 16,7 C 12,2 C 96 % 998,2 hPa 0,0 l/m 0 min 2 min 252 W/m 25,7 km/h (4 Bft) 95,74 %
03.08.2023 10:40 16,7 C 16,7 C 12,8 C 96 % 997,9 hPa 0,0 l/m 0 min 0 min 216 W/m 19,3 km/h (3 Bft) 97,62 %
03.08.2023 10:42 16,7 C 16,7 C 12,2 C 96 % 998,0 hPa 0,0 l/m 0 min 2 min 198 W/m 19,3 km/h (3 Bft) 96,08 %
03.08.2023 10:44 16,8 C 16,7 C 12,8 C 96 % 998,0 hPa 0,0 l/m 0 min 2 min 157 W/m 22,5 km/h (4 Bft) 97,87 %
03.08.2023 10:46 16,8 C 16,7 C 12,8 C 96 % 998,1 hPa 0,0 l/m 0 min 2 min 126 W/m 16,1 km/h (3 Bft) 97,87 %
03.08.2023 10:48 16,8 C 16,7 C 12,2 C 96 % 998,1 hPa 0,0 l/m 0 min 0 min 109 W/m 16,1 km/h (3 Bft) 97,87 %
03.08.2023 10:50 16,9 C 16,1 C 12,2 C 96 % 998,1 hPa 0,0 l/m 0 min 2 min 123 W/m 19,3 km/h (3 Bft) 97,87 %
03.08.2023 10:52 16,9 C 16,1 C 12,2 C 95 % 998,1 hPa 0,0 l/m 0 min 2 min 184 W/m 19,3 km/h (3 Bft) 97,87 %
03.08.2023 10:54 16,9 C 16,1 C 12,2 C 95 % 998,2 hPa 0,0 l/m 0 min 2 min 227 W/m 35,4 km/h (5 Bft) 95,65 %
03.08.2023 10:56 16,9 C 16,7 C 12,2 C 95 % 998,1 hPa 0,0 l/m 0 min 2 min 227 W/m 32,2 km/h (5 Bft) 95,74 %
03.08.2023 10:58 16,9 C 16,7 C 12,8 C 95 % 998,0 hPa 0,0 l/m 0 min 2 min 253 W/m 16,1 km/h (3 Bft) 95,74 %
03.08.2023 11:00 17,0 C 16,7 C 12,8 C 96 % 998,1 hPa 0,0 l/m 0 min 2 min 303 W/m 16,1 km/h (3 Bft) 91,49 %
03.08.2023 11:02 17,1 C 17,2 C 12,8 C 96 % 998,2 hPa 0,0 l/m 2 min 2 min 359 W/m 19,3 km/h (3 Bft) 93,62 %
03.08.2023 11:04 17,1 C 17,2 C 12,8 C 96 % 998,1 hPa 0,0 l/m 2 min 0 min 387 W/m 19,3 km/h (3 Bft) 93,62 %
03.08.2023 11:06 17,2 C 17,2 C 12,8 C 96 % 998,2 hPa 0,0 l/m 2 min 2 min 440 W/m 54,7 km/h (7 Bft) 98,28 %
03.08.2023 11:08 17,2 C 17,8 C 12,8 C 95 % 998,3 hPa 0,0 l/m 2 min 0 min 467 W/m 32,2 km/h (5 Bft) 97,22 %
03.08.2023 11:10 17,3 C 17,8 C 12,8 C 95 % 998,4 hPa 0,0 l/m 2 min 0 min 476 W/m 16,1 km/h (3 Bft) 97,83 %
03.08.2023 11:12 17,4 C 17,8 C 13,3 C 95 % 998,4 hPa 0,0 l/m 2 min 0 min 418 W/m 19,3 km/h (3 Bft) 97,87 %
03.08.2023 11:14 17,5 C 18,3 C 13,3 C 95 % 998,4 hPa 0,0 l/m 2 min 0 min 377 W/m 22,5 km/h (4 Bft) 93,62 %
03.08.2023 11:16 17,6 C 18,3 C 13,3 C 95 % 998,5 hPa 0,0 l/m 2 min 0 min 367 W/m 19,3 km/h (3 Bft) 97,92 %
03.08.2023 11:18 17,7 C 18,3 C 13,3 C 95 % 998,5 hPa 0,0 l/m 0 min 0 min 278 W/m 19,3 km/h (3 Bft) 97,87 %
03.08.2023 11:20 17,7 C 18,3 C 13,3 C 95 % 998,5 hPa 0,0 l/m 0 min 0 min 231 W/m 16,1 km/h (3 Bft) 95,74 %
03.08.2023 11:22 17,8 C 17,8 C 13,3 C 94 % 998,5 hPa 0,0 l/m 0 min 0 min 216 W/m 16,1 km/h (3 Bft) 95,74 %
03.08.2023 11:24 17,8 C 17,8 C 13,3 C 94 % 998,5 hPa 0,0 l/m 0 min 0 min 272 W/m 22,5 km/h (4 Bft) 97,83 %
03.08.2023 11:26 17,8 C 17,8 C 13,3 C 94 % 998,6 hPa 0,0 l/m 0 min 0 min 290 W/m 19,3 km/h (3 Bft) 97,87 %
03.08.2023 11:28 17,8 C 17,8 C 12,8 C 93 % 998,5 hPa 0,0 l/m 0 min 0 min 334 W/m 25,7 km/h (4 Bft) 97,87 %
03.08.2023 11:30 17,8 C 18,3 C 13,3 C 93 % 998,5 hPa 0,0 l/m 0 min 0 min 332 W/m 12,9 km/h (3 Bft) 97,87 %
03.08.2023 11:32 17,8 C 18,3 C 12,8 C 93 % 998,7 hPa 0,0 l/m 0 min 0 min 326 W/m 19,3 km/h (3 Bft) 95,74 %
03.08.2023 11:34 17,9 C 18,3 C 12,8 C 93 % 998,6 hPa 0,0 l/m 0 min 0 min 284 W/m 32,2 km/h (5 Bft) 97,87 %
03.08.2023 11:36 17,9 C 18,3 C 12,8 C 92 % 998,7 hPa 0,0 l/m 0 min 0 min 296 W/m 32,2 km/h (5 Bft) 95,74 %
03.08.2023 11:38 17,9 C 18,3 C 13,3 C 92 % 998,7 hPa 0,0 l/m 2 min 0 min 367 W/m 16,1 km/h (3 Bft) 97,87 %
03.08.2023 11:40 18,0 C 18,9 C 13,3 C 92 % 998,7 hPa 0,0 l/m 0 min 0 min 357 W/m 12,9 km/h (3 Bft) 100,00 %
03.08.2023 11:42 18,1 C 18,9 C 13,3 C 92 % 998,7 hPa 0,0 l/m 0 min 0 min 339 W/m 22,5 km/h (4 Bft) 100,00 %
03.08.2023 11:44 18,1 C 18,3 C 13,3 C 92 % 998,7 hPa 0,0 l/m 0 min 0 min 237 W/m 12,9 km/h (3 Bft) 100,00 %
03.08.2023 11:46 18,2 C 18,3 C 13,3 C 92 % 998,7 hPa 0,0 l/m 0 min 0 min 173 W/m 22,5 km/h (4 Bft) 95,74 %
03.08.2023 11:48 18,1 C 17,8 C 13,9 C 91 % 998,8 hPa 0,0 l/m 0 min 0 min 158 W/m 19,3 km/h (3 Bft) 100,00 %
03.08.2023 11:50 18,1 C 17,8 C 13,9 C 91 % 999,0 hPa 0,0 l/m 0 min 0 min 155 W/m 19,3 km/h (3 Bft) 100,00 %
03.08.2023 11:52 18,1 C 17,8 C 13,9 C 91 % 998,9 hPa 0,0 l/m 0 min 0 min 144 W/m 19,3 km/h (3 Bft) 100,00 %
03.08.2023 11:54 18,1 C 17,8 C 13,9 C 91 % 998,9 hPa 0,0 l/m 0 min 0 min 185 W/m 16,1 km/h (3 Bft) 100,00 %
03.08.2023 11:56 18,1 C 17,8 C 13,9 C 91 % 999,0 hPa 0,0 l/m 0 min 0 min 243 W/m 16,1 km/h (3 Bft) 100,00 %
03.08.2023 11:58 18,1 C 17,8 C 13,9 C 91 % 999,0 hPa 0,0 l/m 0 min 0 min 173 W/m 19,3 km/h (3 Bft) 100,00 %
03.08.2023 12:00 18,1 C 17,8 C 13,9 C 91 % 999,0 hPa 0,0 l/m 0 min 2 min 235 W/m 22,5 km/h (4 Bft) 100,00 %
03.08.2023 12:02 18,2 C 17,8 C 13,9 C 91 % 999,1 hPa 0,0 l/m 0 min 2 min 307 W/m 22,5 km/h (4 Bft) 100,00 %
03.08.2023 12:04 18,2 C 17,8 C 13,9 C 91 % 999,2 hPa 0,0 l/m 0 min 2 min 187 W/m 22,5 km/h (4 Bft) 100,00 %
03.08.2023 12:08 18,1 C 17,8 C 13,3 C 91 % 999,2 hPa 0,0 l/m 0 min 4 min 217 W/m 16,1 km/h (3 Bft) 98,82 %
03.08.2023 12:10 18,0 C 17,8 C 13,3 C 92 % 999,1 hPa 0,0 l/m 0 min 2 min 289 W/m 22,5 km/h (4 Bft) 100,00 %
03.08.2023 12:12 18,0 C 17,8 C 13,3 C 92 % 999,2 hPa 0,0 l/m 0 min 2 min 314 W/m 22,5 km/h (4 Bft) 100,00 %
03.08.2023 12:14 18,0 C 17,8 C 13,3 C 92 % 999,4 hPa 0,0 l/m 0 min 2 min 239 W/m 29,0 km/h (5 Bft) 100,00 %
03.08.2023 12:16 18,0 C 17,8 C 13,3 C 92 % 999,3 hPa 0,0 l/m 0 min 2 min 203 W/m 29,0 km/h (5 Bft) 100,00 %
03.08.2023 12:18 17,9 C 17,8 C 13,3 C 93 % 999,3 hPa 0,0 l/m 0 min 0 min 153 W/m 12,9 km/h (3 Bft) 97,87 %
03.08.2023 12:20 17,9 C 17,2 C 13,3 C 93 % 999,4 hPa 0,0 l/m 0 min 0 min 173 W/m 19,3 km/h (3 Bft) 100,00 %
03.08.2023 12:22 17,8 C 17,8 C 13,3 C 93 % 999,3 hPa 0,0 l/m 0 min 0 min 246 W/m 29,0 km/h (5 Bft) 100,00 %
03.08.2023 12:24 17,8 C 17,8 C 13,3 C 93 % 999,4 hPa 0,0 l/m 0 min 2 min 279 W/m 19,3 km/h (3 Bft) 95,65 %
03.08.2023 12:26 17,8 C 17,8 C 13,3 C 93 % 999,4 hPa 0,0 l/m 0 min 2 min 263 W/m 22,5 km/h (4 Bft) 95,74 %
03.08.2023 12:28 17,8 C 17,2 C 13,3 C 93 % 999,4 hPa 0,0 l/m 0 min 2 min 274 W/m 12,9 km/h (3 Bft) 97,87 %
03.08.2023 12:30 17,8 C 17,8 C 13,3 C 93 % 999,5 hPa 0,0 l/m 0 min 0 min 301 W/m 16,1 km/h (3 Bft) 97,87 %
03.08.2023 12:32 17,8 C 17,8 C 13,3 C 93 % 999,4 hPa 0,0 l/m 0 min 0 min 320 W/m 19,3 km/h (3 Bft) 95,74 %
03.08.2023 12:34 17,8 C 17,8 C 13,3 C 93 % 999,5 hPa 0,0 l/m 0 min 2 min 257 W/m 16,1 km/h (3 Bft) 95,74 %
03.08.2023 12:36 17,8 C 17,8 C 13,3 C 93 % 999,5 hPa 0,0 l/m 0 min 2 min 214 W/m 16,1 km/h (3 Bft) 95,74 %
03.08.2023 12:38 17,8 C 17,2 C 13,3 C 94 % 999,6 hPa 0,0 l/m 0 min 2 min 156 W/m 25,7 km/h (4 Bft) 95,65 %
03.08.2023 12:40 17,8 C 17,2 C 12,8 C 93 % 999,6 hPa 0,0 l/m 0 min 2 min 164 W/m 29,0 km/h (5 Bft) 94,34 %
03.08.2023 12:42 17,7 C 17,2 C 12,8 C 93 % 999,6 hPa 0,0 l/m 0 min 2 min 128 W/m 19,3 km/h (3 Bft) 95,74 %
03.08.2023 12:44 17,7 C 17,2 C 12,8 C 93 % 999,8 hPa 0,0 l/m 0 min 0 min 152 W/m 32,2 km/h (5 Bft) 95,74 %
03.08.2023 12:46 17,6 C 16,7 C 12,8 C 94 % 999,8 hPa 0,0 l/m 0 min 2 min 112 W/m 19,3 km/h (3 Bft) 95,74 %
03.08.2023 12:48 17,6 C 16,7 C 12,8 C 94 % 999,9 hPa 0,0 l/m 0 min 2 min 97 W/m 16,1 km/h (3 Bft) 95,74 %
03.08.2023 12:50 17,5 C 16,7 C 12,8 C 94 % 999,9 hPa 0,0 l/m 0 min 2 min 122 W/m 19,3 km/h (3 Bft) 95,74 %
03.08.2023 12:52 17,4 C 16,7 C 12,8 C 94 % 999,9 hPa 0,0 l/m 0 min 2 min 162 W/m 19,3 km/h (3 Bft) 95,12 %
03.08.2023 12:54 17,4 C 17,2 C 12,8 C 94 % 1000,0 hPa 0,0 l/m 0 min 2 min 210 W/m 22,5 km/h (4 Bft) 95,65 %
03.08.2023 12:56 17,4 C 17,2 C 12,8 C 93 % 999,8 hPa 0,0 l/m 0 min 2 min 233 W/m 16,1 km/h (3 Bft) 95,74 %
03.08.2023 12:58 17,4 C 17,2 C 12,8 C 93 % 999,9 hPa 0,0 l/m 0 min 2 min 248 W/m 19,3 km/h (3 Bft) 95,74 %
03.08.2023 13:00 17,5 C 17,2 C 12,8 C 93 % 999,9 hPa 0,0 l/m 0 min 2 min 242 W/m 19,3 km/h (3 Bft) 93,62 %
03.08.2023 13:02 17,6 C 17,8 C 12,8 C 94 % 999,9 hPa 0,0 l/m 0 min 0 min 268 W/m 12,9 km/h (3 Bft) 92,45 %
03.08.2023 13:04 17,6 C 17,8 C 13,3 C 94 % 999,9 hPa 0,0 l/m 0 min 0 min 321 W/m 19,3 km/h (3 Bft) 95,35 %
03.08.2023 13:06 17,6 C 18,3 C 13,3 C 94 % 1000,0 hPa 0,0 l/m 2 min 0 min 449 W/m 19,3 km/h (3 Bft) 97,87 %
03.08.2023 13:08 17,8 C 18,9 C 13,3 C 94 % 999,9 hPa 0,0 l/m 2 min 0 min 515 W/m 16,1 km/h (3 Bft) 100,00 %
03.08.2023 13:10 17,9 C 18,9 C 13,9 C 94 % 1000,0 hPa 0,0 l/m 2 min 0 min 548 W/m 12,9 km/h (3 Bft) 100,00 %
03.08.2023 13:12 18,1 C 19,4 C 13,9 C 94 % 1000,0 hPa 0,0 l/m 2 min 0 min 575 W/m 12,9 km/h (3 Bft) 93,62 %
03.08.2023 13:14 18,2 C 19,4 C 14,4 C 94 % 1000,0 hPa 0,0 l/m 2 min 0 min 470 W/m 16,1 km/h (3 Bft) 97,87 %
03.08.2023 13:16 18,3 C 18,9 C 13,9 C 93 % 1000,1 hPa 0,0 l/m 0 min 0 min 253 W/m 16,1 km/h (3 Bft) 97,87 %
03.08.2023 13:18 18,4 C 18,9 C 13,9 C 93 % 1000,0 hPa 0,0 l/m 0 min 0 min 267 W/m 25,7 km/h (4 Bft) 97,87 %
03.08.2023 13:20 18,4 C 18,9 C 13,9 C 92 % 1000,1 hPa 0,0 l/m 0 min 0 min 342 W/m 19,3 km/h (3 Bft) 100,00 %
03.08.2023 13:22 18,6 C 18,9 C 14,4 C 92 % 1000,1 hPa 0,0 l/m 0 min 0 min 398 W/m 16,1 km/h (3 Bft) 100,00 %
03.08.2023 13:24 18,6 C 19,4 C 14,4 C 92 % 1000,1 hPa 0,0 l/m 0 min 0 min 396 W/m 16,1 km/h (3 Bft) 100,00 %
03.08.2023 13:26 18,7 C 20,0 C 15,0 C 92 % 1000,2 hPa 0,0 l/m 2 min 0 min 471 W/m 35,4 km/h (5 Bft) 100,00 %
03.08.2023 13:28 18,8 C 20,0 C 15,0 C 91 % 1000,3 hPa 0,0 l/m 2 min 0 min 665 W/m 25,7 km/h (4 Bft) 100,00 %
03.08.2023 13:30 18,8 C 19,4 C 15,0 C 90 % 1000,4 hPa 0,0 l/m 2 min 0 min 421 W/m 25,7 km/h (4 Bft) 100,00 %
03.08.2023 13:32 18,9 C 20,6 C 15,6 C 89 % 1000,2 hPa 0,0 l/m 2 min 0 min 502 W/m 32,2 km/h (5 Bft) 100,00 %
03.08.2023 13:34 19,0 C 21,1 C 15,6 C 89 % 1000,3 hPa 0,0 l/m 2 min 0 min 1010 W/m 19,3 km/h (3 Bft) 100,00 %
03.08.2023 13:36 19,2 C 21,7 C 16,1 C 89 % 1000,2 hPa 0,0 l/m 2 min 0 min 922 W/m 16,1 km/h (3 Bft) 97,87 %
03.08.2023 13:38 19,4 C 22,2 C 16,1 C 89 % 1000,2 hPa 0,0 l/m 2 min 0 min 417 W/m 22,5 km/h (4 Bft) 95,74 %
03.08.2023 13:40 19,5 C 21,1 C 16,1 C 88 % 1000,3 hPa 0,0 l/m 2 min 0 min 414 W/m 19,3 km/h (3 Bft) 95,65 %
03.08.2023 13:42 19,6 C 20,6 C 16,1 C 88 % 1000,2 hPa 0,0 l/m 0 min 0 min 326 W/m 25,7 km/h (4 Bft) 97,87 %
03.08.2023 13:44 19,6 C 20,0 C 16,1 C 86 % 1000,4 hPa 0,0 l/m 0 min 0 min 309 W/m 25,7 km/h (4 Bft) 97,87 %
03.08.2023 13:46 19,6 C 20,0 C 16,1 C 87 % 1000,4 hPa 0,0 l/m 0 min 0 min 354 W/m 29,0 km/h (5 Bft) 95,74 %
03.08.2023 13:48 19,6 C 20,6 C 16,1 C 86 % 1000,5 hPa 0,0 l/m 2 min 0 min 415 W/m 38,6 km/h (5 Bft) 97,87 %
03.08.2023 13:50 19,6 C 20,6 C 16,1 C 86 % 1000,5 hPa 0,0 l/m 2 min 0 min 449 W/m 29,0 km/h (5 Bft) 100,00 %
03.08.2023 13:52 19,5 C 20,0 C 16,1 C 86 % 1000,6 hPa 0,0 l/m 2 min 0 min 418 W/m 19,3 km/h (3 Bft) 97,87 %
03.08.2023 13:54 19,4 C 19,4 C 16,1 C 86 % 1000,6 hPa 0,0 l/m 0 min 0 min 295 W/m 19,3 km/h (3 Bft) 97,83 %
03.08.2023 13:56 19,4 C 20,0 C 16,1 C 86 % 1000,8 hPa 0,0 l/m 0 min 0 min 392 W/m 19,3 km/h (3 Bft) 95,74 %
03.08.2023 13:58 19,4 C 19,4 C 16,1 C 86 % 1000,8 hPa 0,0 l/m 0 min 0 min 357 W/m 25,7 km/h (4 Bft) 95,74 %
03.08.2023 14:00 19,3 C 19,4 C 15,6 C 86 % 1000,9 hPa 0,0 l/m 0 min 0 min 312 W/m 19,3 km/h (3 Bft) 97,87 %
03.08.2023 14:02 19,3 C 19,4 C 15,6 C 86 % 1000,9 hPa 0,0 l/m 0 min 0 min 273 W/m 19,3 km/h (3 Bft) 97,87 %
03.08.2023 14:04 19,2 C 19,4 C 15,6 C 86 % 1000,9 hPa 0,0 l/m 0 min 0 min 308 W/m 29,0 km/h (5 Bft) 93,88 %
03.08.2023 14:06 19,1 C 18,9 C 15,6 C 86 % 1001,0 hPa 0,0 l/m 0 min 0 min 369 W/m 35,4 km/h (5 Bft) 95,74 %
03.08.2023 14:08 19,1 C 18,9 C 15,6 C 86 % 1001,0 hPa 0,0 l/m 0 min 0 min 326 W/m 25,7 km/h (4 Bft) 97,83 %
03.08.2023 14:10 19,1 C 19,4 C 15,6 C 86 % 1001,2 hPa 0,0 l/m 0 min 0 min 384 W/m 19,3 km/h (3 Bft) 97,87 %
03.08.2023 14:12 19,1 C 18,9 C 15,6 C 86 % 1001,0 hPa 0,0 l/m 0 min 0 min 300 W/m 22,5 km/h (4 Bft) 97,87 %
03.08.2023 14:14 19,1 C 19,4 C 15,6 C 87 % 1001,1 hPa 0,0 l/m 0 min 0 min 312 W/m 19,3 km/h (3 Bft) 97,87 %
03.08.2023 14:16 19,1 C 19,4 C 15,6 C 86 % 1001,1 hPa 0,0 l/m 0 min 0 min 313 W/m 29,0 km/h (5 Bft) 100,00 %
03.08.2023 14:18 19,1 C 18,9 C 15,6 C 86 % 1001,0 hPa 0,0 l/m 0 min 0 min 275 W/m 19,3 km/h (3 Bft) 95,74 %
03.08.2023 14:20 19,1 C 18,9 C 15,6 C 86 % 1001,1 hPa 0,0 l/m 0 min 0 min 209 W/m 16,1 km/h (3 Bft) 100,00 %
03.08.2023 14:22 19,1 C 18,9 C 15,6 C 86 % 1001,2 hPa 0,0 l/m 0 min 0 min 195 W/m 22,5 km/h (4 Bft) 100,00 %
03.08.2023 14:24 19,2 C 18,9 C 15,6 C 86 % 1001,1 hPa 0,0 l/m 0 min 0 min 166 W/m 19,3 km/h (3 Bft) 100,00 %
03.08.2023 14:26 19,1 C 18,9 C 15,6 C 86 % 1001,2 hPa 0,0 l/m 0 min 0 min 202 W/m 19,3 km/h (3 Bft) 95,74 %
03.08.2023 14:28 19,1 C 18,9 C 15,6 C 86 % 1001,2 hPa 0,0 l/m 0 min 0 min 276 W/m 16,1 km/h (3 Bft) 100,00 %
03.08.2023 14:30 19,1 C 18,9 C 15,6 C 86 % 1001,2 hPa 0,0 l/m 0 min 0 min 220 W/m 19,3 km/h (3 Bft) 100,00 %
03.08.2023 14:32 19,1 C 19,4 C 15,6 C 86 % 1001,4 hPa 0,0 l/m 0 min 0 min 298 W/m 19,3 km/h (3 Bft) 100,00 %
03.08.2023 14:34 19,1 C 18,9 C 15,6 C 86 % 1001,3 hPa 0,0 l/m 0 min 0 min 258 W/m 19,3 km/h (3 Bft) 100,00 %
03.08.2023 14:36 19,1 C 18,9 C 15,6 C 86 % 1001,4 hPa 0,0 l/m 0 min 0 min 182 W/m 25,7 km/h (4 Bft) 96,43 %
03.08.2023 14:38 19,1 C 18,9 C 15,6 C 86 % 1001,5 hPa 0,0 l/m 0 min 0 min 200 W/m 12,9 km/h (3 Bft) 97,96 %
03.08.2023 14:40 19,1 C 18,9 C 15,0 C 87 % 1001,5 hPa 0,0 l/m 0 min 0 min 191 W/m 25,7 km/h (4 Bft) 97,87 %
03.08.2023 14:42 19,1 C 18,9 C 15,0 C 87 % 1001,6 hPa 0,0 l/m 0 min 0 min 215 W/m 19,3 km/h (3 Bft) 97,87 %
03.08.2023 14:44 18,9 C 18,3 C 15,0 C 87 % 1001,6 hPa 0,0 l/m 0 min 0 min 158 W/m 25,7 km/h (4 Bft) 97,87 %
03.08.2023 14:46 18,8 C 18,3 C 15,0 C 87 % 1001,7 hPa 0,0 l/m 0 min 0 min 137 W/m 19,3 km/h (3 Bft) 97,87 %
03.08.2023 14:48 18,8 C 18,3 C 15,0 C 87 % 1001,8 hPa 0,0 l/m 0 min 0 min 169 W/m 22,5 km/h (4 Bft) 95,74 %
03.08.2023 14:50 18,6 C 18,3 C 14,4 C 87 % 1001,9 hPa 0,0 l/m 0 min 0 min 244 W/m 32,2 km/h (5 Bft) 97,87 %
03.08.2023 14:52 18,6 C 18,3 C 14,4 C 88 % 1001,8 hPa 0,0 l/m 0 min 0 min 364 W/m 12,9 km/h (3 Bft) 97,83 %
03.08.2023 14:54 18,6 C 18,3 C 15,0 C 89 % 1001,8 hPa 0,0 l/m 0 min 0 min 306 W/m 16,1 km/h (3 Bft) 97,87 %
03.08.2023 14:56 18,6 C 18,3 C 15,0 C 89 % 1001,8 hPa 0,0 l/m 0 min 0 min 273 W/m 22,5 km/h (4 Bft) 95,74 %
03.08.2023 14:58 18,6 C 18,3 C 15,0 C 89 % 1001,9 hPa 0,0 l/m 0 min 0 min 196 W/m 16,1 km/h (3 Bft) 97,87 %
03.08.2023 15:00 18,6 C 18,3 C 15,0 C 89 % 1001,9 hPa 0,0 l/m 0 min 0 min 165 W/m 16,1 km/h (3 Bft) 95,74 %
03.08.2023 15:02 18,6 C 18,3 C 14,4 C 89 % 1001,9 hPa 0,0 l/m 0 min 0 min 171 W/m 25,7 km/h (4 Bft) 93,62 %
03.08.2023 15:04 18,6 C 18,3 C 15,0 C 89 % 1002,0 hPa 0,0 l/m 0 min 0 min 172 W/m 19,3 km/h (3 Bft) 97,92 %
03.08.2023 15:06 18,6 C 18,3 C 15,0 C 90 % 1002,0 hPa 0,0 l/m 0 min 0 min 137 W/m 12,9 km/h (3 Bft) 97,87 %
03.08.2023 15:08 18,6 C 18,3 C 15,0 C 90 % 1002,0 hPa 0,0 l/m 0 min 0 min 195 W/m 22,5 km/h (4 Bft) 95,74 %
03.08.2023 15:10 18,6 C 18,9 C 15,0 C 90 % 1002,1 hPa 0,0 l/m 0 min 0 min 263 W/m 16,1 km/h (3 Bft) 97,87 %
03.08.2023 15:12 18,7 C 18,9 C 15,6 C 90 % 1002,0 hPa 0,0 l/m 0 min 0 min 257 W/m 19,3 km/h (3 Bft) 100,00 %
03.08.2023 15:14 18,7 C 18,9 C 15,6 C 90 % 1002,1 hPa 0,0 l/m 0 min 0 min 223 W/m 19,3 km/h (3 Bft) 100,00 %
03.08.2023 15:16 18,7 C 18,9 C 15,6 C 89 % 1002,1 hPa 0,0 l/m 0 min 0 min 125 W/m 12,9 km/h (3 Bft) 100,00 %
03.08.2023 15:18 18,8 C 18,9 C 15,6 C 89 % 1002,1 hPa 0,0 l/m 0 min 0 min 96 W/m 22,5 km/h (4 Bft) 97,87 %
03.08.2023 15:20 18,8 C 18,9 C 15,0 C 89 % 1002,2 hPa 0,0 l/m 0 min 0 min 70 W/m 22,5 km/h (4 Bft) 97,83 %
03.08.2023 15:22 18,7 C 18,3 C 15,0 C 89 % 1002,2 hPa 0,0 l/m 0 min 0 min 59 W/m 12,9 km/h (3 Bft) 97,87 %
03.08.2023 15:24 18,7 C 18,3 C 15,0 C 89 % 1002,2 hPa 0,0 l/m 0 min 0 min 60 W/m 12,9 km/h (3 Bft) 97,14 %
03.08.2023 15:26 18,8 C 18,3 C 15,0 C 89 % 1002,2 hPa 0,0 l/m 0 min 0 min 81 W/m 22,5 km/h (4 Bft) 100,00 %
03.08.2023 15:28 18,8 C 18,3 C 15,0 C 89 % 1002,3 hPa 0,0 l/m 0 min 0 min 107 W/m 16,1 km/h (3 Bft) 95,74 %
03.08.2023 15:30 18,7 C 18,3 C 15,0 C 89 % 1002,3 hPa 0,0 l/m 0 min 0 min 96 W/m 19,3 km/h (3 Bft) 97,87 %
03.08.2023 15:32 18,7 C 18,3 C 15,0 C 89 % 1002,3 hPa 0,0 l/m 0 min 0 min 90 W/m 16,1 km/h (3 Bft) 97,14 %
03.08.2023 15:34 18,6 C 18,3 C 15,0 C 89 % 1002,4 hPa 0,0 l/m 0 min 0 min 138 W/m 22,5 km/h (4 Bft) 100,00 %
03.08.2023 15:36 18,6 C 18,3 C 15,0 C 89 % 1002,4 hPa 0,0 l/m 0 min 0 min 216 W/m 16,1 km/h (3 Bft) 100,00 %
03.08.2023 15:38 18,6 C 18,9 C 15,0 C 90 % 1002,4 hPa 0,0 l/m 0 min 0 min 255 W/m 19,3 km/h (3 Bft) 97,83 %
03.08.2023 15:40 18,7 C 18,9 C 15,0 C 90 % 1002,4 hPa 0,0 l/m 0 min 0 min 214 W/m 12,9 km/h (3 Bft) 100,00 %
03.08.2023 15:42 18,7 C 18,9 C 15,0 C 90 % 1002,5 hPa 0,0 l/m 0 min 0 min 147 W/m 16,1 km/h (3 Bft) 97,87 %
03.08.2023 15:44 18,7 C 18,3 C 15,0 C 90 % 1002,5 hPa 0,0 l/m 0 min 2 min 90 W/m 16,1 km/h (3 Bft) 100,00 %
03.08.2023 15:46 18,7 C 18,3 C 14,4 C 91 % 1002,5 hPa 0,0 l/m 0 min 2 min 78 W/m 22,5 km/h (4 Bft) 97,87 %
03.08.2023 15:48 18,6 C 17,8 C 13,3 C 91 % 1002,6 hPa 0,4 l/m 0 min 2 min 101 W/m 16,1 km/h (3 Bft) 97,87 %
03.08.2023 15:50 18,5 C 18,3 C 13,3 C 91 % 1002,7 hPa 0,0 l/m 0 min 2 min 149 W/m 16,1 km/h (3 Bft) 95,74 %
03.08.2023 15:52 18,5 C 18,9 C 13,9 C 92 % 1002,8 hPa 0,0 l/m 2 min 0 min 517 W/m 19,3 km/h (3 Bft) 93,48 %
03.08.2023 15:54 18,6 C 18,9 C 13,9 C 93 % 1002,7 hPa 0,0 l/m 2 min 0 min 528 W/m 16,1 km/h (3 Bft) 97,87 %
03.08.2023 15:56 18,6 C 18,9 C 13,9 C 93 % 1002,8 hPa 0,0 l/m 0 min 0 min 271 W/m 16,1 km/h (3 Bft) 97,87 %
03.08.2023 15:58 18,6 C 18,3 C 13,9 C 93 % 1002,8 hPa 0,0 l/m 0 min 0 min 212 W/m 12,9 km/h (3 Bft) 97,87 %
03.08.2023 16:00 18,6 C 18,3 C 13,9 C 93 % 1002,9 hPa 0,0 l/m 0 min 0 min 219 W/m 19,3 km/h (3 Bft) 97,87 %
03.08.2023 16:02 18,6 C 18,3 C 13,9 C 93 % 1003,0 hPa 0,0 l/m 0 min 0 min 194 W/m 12,9 km/h (3 Bft) 97,87 %
03.08.2023 16:04 18,6 C 18,3 C 13,9 C 93 % 1003,0 hPa 0,0 l/m 0 min 2 min 173 W/m 19,3 km/h (3 Bft) 95,83 %
03.08.2023 16:06 18,6 C 18,3 C 13,9 C 93 % 1003,1 hPa 0,0 l/m 0 min 2 min 167 W/m 12,9 km/h (3 Bft) 98,28 %
03.08.2023 16:08 18,6 C 18,3 C 13,9 C 94 % 1003,1 hPa 0,0 l/m 0 min 2 min 152 W/m 19,3 km/h (3 Bft) 94,29 %
03.08.2023 16:10 18,5 C 18,3 C 13,3 C 94 % 1003,2 hPa 0,0 l/m 0 min 2 min 139 W/m 16,1 km/h (3 Bft) 95,74 %
03.08.2023 16:12 18,4 C 18,3 C 13,9 C 94 % 1003,2 hPa 0,0 l/m 0 min 2 min 131 W/m 12,9 km/h (3 Bft) 95,74 %
03.08.2023 16:14 18,4 C 17,8 C 13,3 C 94 % 1003,3 hPa 0,0 l/m 0 min 2 min 153 W/m 19,3 km/h (3 Bft) 97,87 %
03.08.2023 16:16 18,3 C 17,8 C 13,3 C 94 % 1003,3 hPa 0,0 l/m 0 min 2 min 154 W/m 12,9 km/h (3 Bft) 95,74 %
03.08.2023 16:18 18,3 C 17,8 C 13,3 C 94 % 1003,4 hPa 0,0 l/m 0 min 2 min 150 W/m 12,9 km/h (3 Bft) 93,62 %
03.08.2023 16:20 18,3 C 17,8 C 13,3 C 94 % 1003,4 hPa 0,0 l/m 0 min 2 min 116 W/m 12,9 km/h (3 Bft) 95,74 %
03.08.2023 16:22 18,3 C 17,8 C 13,9 C 95 % 1003,4 hPa 0,0 l/m 0 min 2 min 136 W/m 12,9 km/h (3 Bft) 93,48 %
03.08.2023 16:24 18,3 C 17,8 C 13,3 C 94 % 1003,5 hPa 0,0 l/m 0 min 0 min 141 W/m 19,3 km/h (3 Bft) 95,74 %
03.08.2023 16:26 18,3 C 18,3 C 13,3 C 94 % 1003,7 hPa 0,0 l/m 0 min 0 min 224 W/m 19,3 km/h (3 Bft) 95,74 %
03.08.2023 16:28 18,3 C 18,3 C 13,9 C 95 % 1003,6 hPa 0,0 l/m 0 min 0 min 311 W/m 19,3 km/h (3 Bft) 95,74 %
03.08.2023 16:30 18,3 C 18,9 C 13,9 C 95 % 1003,6 hPa 0,0 l/m 0 min 0 min 315 W/m 16,1 km/h (3 Bft) 93,62 %
03.08.2023 16:32 18,4 C 18,9 C 13,9 C 95 % 1003,7 hPa 0,0 l/m 0 min 0 min 235 W/m 12,9 km/h (3 Bft) 95,74 %
03.08.2023 16:34 18,5 C 18,9 C 13,9 C 95 % 1003,7 hPa 0,0 l/m 0 min 0 min 244 W/m 16,1 km/h (3 Bft) 95,65 %
03.08.2023 16:36 18,4 C 18,9 C 13,9 C 95 % 1003,8 hPa 0,0 l/m 0 min 0 min 213 W/m 16,1 km/h (3 Bft) 95,74 %
03.08.2023 16:38 18,4 C 18,9 C 13,9 C 95 % 1003,8 hPa 0,0 l/m 0 min 2 min 215 W/m 16,1 km/h (3 Bft) 93,62 %
03.08.2023 16:40 18,4 C 18,9 C 13,9 C 94 % 1003,8 hPa 0,0 l/m 0 min 2 min 153 W/m 16,1 km/h (3 Bft) 95,74 %
03.08.2023 16:42 18,4 C 18,3 C 13,9 C 94 % 1003,9 hPa 0,0 l/m 0 min 0 min 167 W/m 16,1 km/h (3 Bft) 95,74 %
03.08.2023 16:44 18,4 C 18,3 C 13,3 C 94 % 1003,9 hPa 0,0 l/m 0 min 0 min 212 W/m 32,2 km/h (5 Bft) 93,62 %
03.08.2023 16:46 18,3 C 18,3 C 13,3 C 94 % 1003,9 hPa 0,0 l/m 0 min 2 min 220 W/m 29,0 km/h (5 Bft) 93,62 %
03.08.2023 16:48 18,3 C 18,3 C 13,9 C 93 % 1003,9 hPa 0,0 l/m 0 min 2 min 237 W/m 25,7 km/h (4 Bft) 95,74 %
03.08.2023 16:50 18,3 C 18,3 C 13,9 C 93 % 1004,0 hPa 0,0 l/m 0 min 0 min 215 W/m 16,1 km/h (3 Bft) 95,65 %
03.08.2023 16:52 18,3 C 18,3 C 13,9 C 93 % 1004,0 hPa 0,0 l/m 0 min 0 min 185 W/m 16,1 km/h (3 Bft) 93,62 %
03.08.2023 16:54 18,3 C 18,3 C 13,9 C 93 % 1004,1 hPa 0,0 l/m 0 min 0 min 200 W/m 16,1 km/h (3 Bft) 95,74 %
03.08.2023 16:56 18,3 C 18,3 C 13,9 C 93 % 1004,2 hPa 0,0 l/m 0 min 0 min 201 W/m 19,3 km/h (3 Bft) 95,74 %
03.08.2023 16:58 18,3 C 18,3 C 13,3 C 92 % 1004,2 hPa 0,0 l/m 0 min 0 min 198 W/m 22,5 km/h (4 Bft) 97,87 %
03.08.2023 17:00 18,2 C 18,3 C 13,3 C 92 % 1004,2 hPa 0,0 l/m 0 min 0 min 198 W/m 16,1 km/h (3 Bft) 93,62 %
03.08.2023 17:02 18,2 C 18,3 C 13,3 C 92 % 1004,2 hPa 0,0 l/m 0 min 0 min 206 W/m 12,9 km/h (3 Bft) 95,74 %
03.08.2023 17:04 18,3 C 18,3 C 13,9 C 92 % 1004,3 hPa 0,0 l/m 0 min 0 min 192 W/m 16,1 km/h (3 Bft) 97,83 %
03.08.2023 17:06 18,3 C 18,3 C 13,9 C 92 % 1004,3 hPa 0,0 l/m 0 min 0 min 172 W/m 16,1 km/h (3 Bft) 94,92 %
03.08.2023 17:08 18,4 C 18,9 C 13,9 C 92 % 1004,4 hPa 0,0 l/m 0 min 0 min 208 W/m 9,7 km/h (2 Bft) 97,37 %
03.08.2023 17:10 18,4 C 18,9 C 13,9 C 92 % 1004,3 hPa 0,0 l/m 0 min 0 min 224 W/m 22,5 km/h (4 Bft) 100,00 %
03.08.2023 17:12 18,4 C 18,9 C 13,9 C 92 % 1004,4 hPa 0,0 l/m 0 min 0 min 229 W/m 12,9 km/h (3 Bft) 97,87 %
03.08.2023 17:14 18,4 C 18,3 C 13,9 C 91 % 1004,4 hPa 0,0 l/m 0 min 0 min 225 W/m 16,1 km/h (3 Bft) 100,00 %
03.08.2023 17:16 18,4 C 18,3 C 13,9 C 91 % 1004,4 hPa 0,0 l/m 0 min 2 min 208 W/m 22,5 km/h (4 Bft) 100,00 %
03.08.2023 17:18 18,4 C 18,3 C 13,9 C 91 % 1004,5 hPa 0,0 l/m 0 min 0 min 201 W/m 16,1 km/h (3 Bft) 100,00 %
03.08.2023 17:20 18,4 C 18,3 C 13,9 C 91 % 1004,4 hPa 0,0 l/m 0 min 0 min 195 W/m 16,1 km/h (3 Bft) 97,87 %
03.08.2023 17:22 18,4 C 18,3 C 14,4 C 91 % 1004,4 hPa 0,0 l/m 0 min 0 min 187 W/m 9,7 km/h (2 Bft) 100,00 %
03.08.2023 17:24 18,5 C 18,3 C 14,4 C 91 % 1004,5 hPa 0,0 l/m 0 min 2 min 183 W/m 12,9 km/h (3 Bft) 97,87 %
03.08.2023 17:26 18,5 C 18,3 C 14,4 C 91 % 1004,5 hPa 0,0 l/m 0 min 2 min 180 W/m 12,9 km/h (3 Bft) 100,00 %
03.08.2023 17:28 18,6 C 18,3 C 14,4 C 91 % 1004,6 hPa 0,0 l/m 0 min 2 min 179 W/m 16,1 km/h (3 Bft) 100,00 %
03.08.2023 17:30 18,6 C 18,3 C 14,4 C 92 % 1004,6 hPa 0,0 l/m 0 min 0 min 180 W/m 12,9 km/h (3 Bft) 97,87 %
03.08.2023 17:32 18,6 C 18,3 C 14,4 C 92 % 1004,6 hPa 0,0 l/m 0 min 2 min 191 W/m 16,1 km/h (3 Bft) 100,00 %
03.08.2023 17:34 18,5 C 18,9 C 15,0 C 91 % 1004,6 hPa 0,0 l/m 0 min 0 min 212 W/m 19,3 km/h (3 Bft) 100,00 %
03.08.2023 17:36 18,5 C 18,9 C 15,0 C 91 % 1004,7 hPa 0,0 l/m 0 min 0 min 198 W/m 19,3 km/h (3 Bft) 100,00 %
03.08.2023 17:38 18,5 C 18,9 C 15,0 C 91 % 1004,7 hPa 0,0 l/m 0 min 0 min 187 W/m 9,7 km/h (2 Bft) 100,00 %
03.08.2023 17:40 18,6 C 18,9 C 15,0 C 91 % 1004,7 hPa 0,0 l/m 0 min 0 min 186 W/m 16,1 km/h (3 Bft) 100,00 %
03.08.2023 17:42 18,5 C 18,3 C 15,0 C 91 % 1004,8 hPa 0,0 l/m 0 min 0 min 174 W/m 19,3 km/h (3 Bft) 100,00 %
03.08.2023 17:44 18,6 C 18,3 C 15,0 C 91 % 1004,8 hPa 0,0 l/m 0 min 0 min 158 W/m 19,3 km/h (3 Bft) 100,00 %
03.08.2023 17:46 18,6 C 18,9 C 15,0 C 90 % 1004,8 hPa 0,0 l/m 0 min 0 min 188 W/m 12,9 km/h (3 Bft) 97,83 %
03.08.2023 17:48 18,6 C 18,3 C 15,0 C 90 % 1004,8 hPa 0,0 l/m 0 min 0 min 204 W/m 22,5 km/h (4 Bft) 100,00 %
03.08.2023 17:50 18,6 C 18,3 C 15,0 C 90 % 1004,9 hPa 0,0 l/m 0 min 0 min 207 W/m 12,9 km/h (3 Bft) 97,87 %
03.08.2023 17:52 18,6 C 18,9 C 15,0 C 90 % 1004,9 hPa 0,0 l/m 0 min 0 min 202 W/m 12,9 km/h (3 Bft) 100,00 %
03.08.2023 17:54 18,7 C 18,9 C 15,0 C 90 % 1004,8 hPa 0,0 l/m 0 min 2 min 183 W/m 12,9 km/h (3 Bft) 100,00 %
03.08.2023 17:56 18,7 C 18,9 C 15,0 C 90 % 1004,9 hPa 0,0 l/m 0 min 2 min 168 W/m 19,3 km/h (3 Bft) 100,00 %
03.08.2023 17:58 18,7 C 18,3 C 15,0 C 89 % 1004,8 hPa 0,0 l/m 0 min 0 min 147 W/m 19,3 km/h (3 Bft) 100,00 %
03.08.2023 18:00 18,7 C 18,3 C 15,0 C 89 % 1004,8 hPa 0,0 l/m 0 min 2 min 151 W/m 12,9 km/h (3 Bft) 97,87 %
03.08.2023 18:02 18,7 C 18,3 C 15,0 C 89 % 1004,9 hPa 0,0 l/m 0 min 2 min 143 W/m 16,1 km/h (3 Bft) 100,00 %
03.08.2023 18:04 18,6 C 18,3 C 15,0 C 89 % 1005,0 hPa 0,0 l/m 0 min 0 min 130 W/m 16,1 km/h (3 Bft) 100,00 %
03.08.2023 18:07 18,6 C 18,3 C 15,0 C 89 % 1005,0 hPa 0,0 l/m 0 min 0 min 176 W/m 16,1 km/h (3 Bft) 100,00 %
03.08.2023 18:08 18,6 C 18,3 C 15,0 C 89 % 1004,9 hPa 0,0 l/m 0 min 0 min 161 W/m 22,5 km/h (4 Bft) 97,75 %
03.08.2023 18:12 18,6 C 18,3 C 15,0 C 88 % 1005,0 hPa 0,0 l/m 0 min 0 min 167 W/m 22,5 km/h (4 Bft) 97,73 %
03.08.2023 18:14 18,6 C 18,3 C 15,0 C 88 % 1005,0 hPa 0,0 l/m 0 min 0 min 154 W/m 16,1 km/h (3 Bft) 100,00 %
03.08.2023 18:16 18,6 C 18,3 C 15,0 C 88 % 1005,0 hPa 0,0 l/m 0 min 0 min 138 W/m 12,9 km/h (3 Bft) 97,83 %
03.08.2023 18:18 18,6 C 18,3 C 15,0 C 88 % 1005,0 hPa 0,0 l/m 0 min 0 min 128 W/m 12,9 km/h (3 Bft) 97,87 %
03.08.2023 18:20 18,6 C 18,3 C 15,0 C 88 % 1005,0 hPa 0,0 l/m 0 min 0 min 123 W/m 6,4 km/h (2 Bft) 100,00 %
03.08.2023 18:22 18,6 C 18,3 C 15,0 C 88 % 1005,0 hPa 0,0 l/m 0 min 0 min 142 W/m 12,9 km/h (3 Bft) 97,87 %
03.08.2023 18:24 18,6 C 18,9 C 15,0 C 88 % 1005,1 hPa 0,0 l/m 0 min 0 min 188 W/m 16,1 km/h (3 Bft) 100,00 %
03.08.2023 18:26 18,7 C 18,9 C 15,0 C 88 % 1005,0 hPa 0,0 l/m 0 min 0 min 171 W/m 6,4 km/h (2 Bft) 100,00 %
03.08.2023 18:28 18,7 C 18,9 C 15,0 C 88 % 1005,1 hPa 0,0 l/m 0 min 2 min 178 W/m 6,4 km/h (2 Bft) 100,00 %
03.08.2023 18:30 18,8 C 18,9 C 15,0 C 89 % 1005,1 hPa 0,0 l/m 0 min 2 min 188 W/m 6,4 km/h (2 Bft) 97,87 %
03.08.2023 18:32 18,8 C 18,9 C 15,0 C 89 % 1005,2 hPa 0,0 l/m 0 min 2 min 188 W/m 16,1 km/h (3 Bft) 97,87 %
03.08.2023 18:34 18,8 C 18,9 C 15,0 C 89 % 1005,1 hPa 0,0 l/m 0 min 0 min 193 W/m 12,9 km/h (3 Bft) 95,74 %
03.08.2023 18:36 18,9 C 18,9 C 15,0 C 89 % 1005,1 hPa 0,0 l/m 0 min 0 min 187 W/m 9,7 km/h (2 Bft) 95,74 %
03.08.2023 18:38 18,9 C 18,9 C 15,0 C 89 % 1005,2 hPa 0,0 l/m 0 min 0 min 178 W/m 12,9 km/h (3 Bft) 95,74 %
03.08.2023 18:40 18,9 C 18,9 C 15,0 C 89 % 1005,2 hPa 0,0 l/m 0 min 0 min 173 W/m 6,4 km/h (2 Bft) 97,83 %
03.08.2023 18:42 18,9 C 18,9 C 15,0 C 89 % 1005,2 hPa 0,0 l/m 0 min 0 min 150 W/m 6,4 km/h (2 Bft) 97,87 %
03.08.2023 18:44 18,9 C 18,9 C 15,0 C 89 % 1005,2 hPa 0,0 l/m 0 min 0 min 122 W/m 12,9 km/h (3 Bft) 97,87 %
03.08.2023 18:46 18,9 C 18,9 C 15,0 C 89 % 1005,2 hPa 0,0 l/m 0 min 0 min 96 W/m 6,4 km/h (2 Bft) 93,88 %
03.08.2023 18:48 18,9 C 18,9 C 15,0 C 89 % 1005,3 hPa 0,0 l/m 0 min 0 min 90 W/m 12,9 km/h (3 Bft) 97,37 %
03.08.2023 18:50 18,9 C 18,3 C 15,0 C 89 % 1005,3 hPa 0,0 l/m 0 min 0 min 79 W/m 6,4 km/h (2 Bft) 96,30 %
03.08.2023 18:52 18,9 C 18,3 C 15,0 C 89 % 1005,2 hPa 0,0 l/m 0 min 0 min 72 W/m 6,4 km/h (2 Bft) 98,00 %
03.08.2023 18:54 18,8 C 18,3 C 15,0 C 89 % 1005,5 hPa 0,0 l/m 0 min 0 min 83 W/m 16,1 km/h (3 Bft) 94,59 %
03.08.2023 18:56 18,8 C 18,3 C 15,0 C 89 % 1005,4 hPa 0,0 l/m 0 min 0 min 117 W/m 6,4 km/h (2 Bft) 95,74 %
03.08.2023 18:58 18,8 C 18,9 C 15,0 C 89 % 1005,4 hPa 0,0 l/m 2 min 0 min 186 W/m 12,9 km/h (3 Bft) 91,49 %
03.08.2023 19:00 18,8 C 20,0 C 15,0 C 89 % 1005,5 hPa 0,0 l/m 2 min 0 min 250 W/m 12,9 km/h (3 Bft) 92,73 %
03.08.2023 19:02 18,8 C 20,0 C 15,0 C 89 % 1005,5 hPa 0,0 l/m 2 min 0 min 216 W/m 9,7 km/h (2 Bft) 92,00 %
03.08.2023 19:04 18,9 C 19,4 C 15,0 C 89 % 1005,6 hPa 0,0 l/m 2 min 0 min 179 W/m 9,7 km/h (2 Bft) 94,59 %
03.08.2023 19:06 18,9 C 18,9 C 15,0 C 88 % 1005,6 hPa 0,0 l/m 0 min 0 min 122 W/m 22,5 km/h (4 Bft) 91,53 %
03.08.2023 19:08 18,9 C 18,9 C 15,0 C 88 % 1005,7 hPa 0,0 l/m 0 min 0 min 80 W/m 16,1 km/h (3 Bft) 97,14 %
03.08.2023 19:10 18,9 C 18,9 C 15,0 C 88 % 1005,7 hPa 0,0 l/m 0 min 0 min 66 W/m 22,5 km/h (4 Bft) 95,74 %
03.08.2023 19:12 18,9 C 18,3 C 15,0 C 88 % 1005,7 hPa 0,0 l/m 0 min 0 min 68 W/m 12,9 km/h (3 Bft) 94,34 %
03.08.2023 19:14 18,9 C 18,3 C 15,0 C 88 % 1005,8 hPa 0,0 l/m 0 min 0 min 68 W/m 22,5 km/h (4 Bft) 95,74 %
03.08.2023 19:16 18,8 C 18,3 C 15,0 C 87 % 1005,8 hPa 0,0 l/m 0 min 0 min 53 W/m 16,1 km/h (3 Bft) 97,87 %
03.08.2023 19:18 18,8 C 18,3 C 14,4 C 87 % 1005,9 hPa 0,0 l/m 0 min 0 min 68 W/m 19,3 km/h (3 Bft) 97,87 %
03.08.2023 19:20 18,7 C 17,8 C 14,4 C 86 % 1005,9 hPa 0,0 l/m 0 min 0 min 76 W/m 25,7 km/h (4 Bft) 95,74 %
03.08.2023 19:22 18,6 C 17,8 C 14,4 C 85 % 1006,0 hPa 0,0 l/m 0 min 0 min 64 W/m 16,1 km/h (3 Bft) 97,87 %
03.08.2023 19:24 18,4 C 17,8 C 14,4 C 85 % 1006,0 hPa 0,0 l/m 0 min 0 min 52 W/m 16,1 km/h (3 Bft) 95,65 %
03.08.2023 19:26 18,4 C 17,8 C 14,4 C 85 % 1006,0 hPa 0,0 l/m 0 min 0 min 49 W/m 12,9 km/h (3 Bft) 93,62 %
03.08.2023 19:28 18,3 C 17,8 C 14,4 C 86 % 1006,2 hPa 0,0 l/m 0 min 0 min 57 W/m 12,9 km/h (3 Bft) 95,74 %
03.08.2023 19:30 18,3 C 17,8 C 13,9 C 86 % 1006,1 hPa 0,0 l/m 0 min 0 min 72 W/m 12,9 km/h (3 Bft) 95,74 %
03.08.2023 19:32 18,3 C 17,8 C 13,9 C 87 % 1006,1 hPa 0,0 l/m 0 min 2 min 93 W/m 6,4 km/h (2 Bft) 95,74 %
03.08.2023 19:34 18,3 C 17,8 C 13,3 C 88 % 1006,2 hPa 0,2 l/m 0 min 2 min 111 W/m 12,9 km/h (3 Bft) 93,62 %
03.08.2023 19:36 18,3 C 17,2 C 13,3 C 88 % 1006,2 hPa 0,0 l/m 2 min 2 min 121 W/m 6,4 km/h (2 Bft) 95,74 %
03.08.2023 19:38 18,3 C 17,2 C 13,3 C 89 % 1006,3 hPa 0,0 l/m 2 min 2 min 121 W/m 9,7 km/h (2 Bft) 95,65 %
03.08.2023 19:40 18,2 C 17,2 C 13,3 C 89 % 1006,3 hPa 0,0 l/m 0 min 2 min 106 W/m 6,4 km/h (2 Bft) 95,74 %
03.08.2023 19:42 18,2 C 17,2 C 13,3 C 89 % 1006,4 hPa 0,0 l/m 0 min 0 min 84 W/m 12,9 km/h (3 Bft) 97,87 %
03.08.2023 19:44 18,1 C 17,2 C 13,3 C 90 % 1006,4 hPa 0,0 l/m 0 min 0 min 70 W/m 6,4 km/h (2 Bft) 97,87 %
03.08.2023 19:46 18,0 C 17,2 C 13,3 C 90 % 1006,5 hPa 0,0 l/m 0 min 0 min 62 W/m 9,7 km/h (2 Bft) 97,87 %
03.08.2023 19:48 17,9 C 17,2 C 13,3 C 90 % 1006,5 hPa 0,0 l/m 0 min 0 min 53 W/m 12,9 km/h (3 Bft) 97,87 %
03.08.2023 19:50 17,9 C 16,7 C 12,8 C 90 % 1006,6 hPa 0,0 l/m 0 min 0 min 45 W/m 12,9 km/h (3 Bft) 97,87 %
03.08.2023 19:52 17,8 C 16,7 C 12,8 C 90 % 1006,7 hPa 0,0 l/m 0 min 0 min 40 W/m 6,4 km/h (2 Bft) 100,00 %
03.08.2023 19:54 17,8 C 16,7 C 12,8 C 91 % 1006,7 hPa 0,0 l/m 0 min 0 min 36 W/m 12,9 km/h (3 Bft) 100,00 %
03.08.2023 19:56 17,8 C 16,7 C 13,3 C 91 % 1006,7 hPa 0,0 l/m 0 min 0 min 31 W/m 22,5 km/h (4 Bft) 97,87 %
03.08.2023 19:58 17,8 C 16,7 C 13,3 C 91 % 1006,8 hPa 0,0 l/m 0 min 0 min 23 W/m 12,9 km/h (3 Bft) 100,00 %
03.08.2023 20:00 17,7 C 16,7 C 13,3 C 91 % 1006,8 hPa 0,0 l/m 0 min 0 min 17 W/m 16,1 km/h (3 Bft) 100,00 %
03.08.2023 20:02 17,7 C 16,7 C 13,3 C 91 % 1006,9 hPa 0,0 l/m 0 min 0 min 11 W/m 6,4 km/h (2 Bft) 97,87 %
03.08.2023 20:04 17,7 C 16,7 C 13,3 C 91 % 1007,0 hPa 0,0 l/m 0 min 0 min 10 W/m 16,1 km/h (3 Bft) 100,00 %
03.08.2023 20:06 17,6 C 16,7 C 13,3 C 91 % 1007,0 hPa 0,0 l/m 0 min 0 min 9 W/m 16,1 km/h (3 Bft) 100,00 %
03.08.2023 20:08 17,6 C 16,7 C 12,8 C 91 % 1007,0 hPa 0,0 l/m 0 min 0 min 9 W/m 9,7 km/h (2 Bft) 97,87 %
03.08.2023 20:10 17,5 C 16,7 C 12,8 C 91 % 1007,0 hPa 0,0 l/m 0 min 0 min 10 W/m 9,7 km/h (2 Bft) 100,00 %
03.08.2023 20:12 17,5 C 16,7 C 12,8 C 91 % 1007,1 hPa 0,0 l/m 0 min 0 min 9 W/m 12,9 km/h (3 Bft) 100,00 %
03.08.2023 20:14 17,4 C 16,7 C 12,8 C 91 % 1007,1 hPa 0,0 l/m 0 min 0 min 8 W/m 9,7 km/h (2 Bft) 97,87 %
03.08.2023 20:16 17,4 C 16,7 C 12,8 C 91 % 1007,2 hPa 0,0 l/m 0 min 0 min 6 W/m 12,9 km/h (3 Bft) 100,00 %
03.08.2023 20:18 17,4 C 16,7 C 12,8 C 91 % 1007,1 hPa 0,0 l/m 0 min 0 min 5 W/m 16,1 km/h (3 Bft) 100,00 %
03.08.2023 20:20 17,4 C 16,7 C 12,8 C 91 % 1007,1 hPa 0,0 l/m 0 min 0 min 5 W/m 9,7 km/h (2 Bft) 97,87 %
03.08.2023 20:22 17,3 C 16,7 C 12,8 C 91 % 1007,2 hPa 0,0 l/m 0 min 0 min 7 W/m 6,4 km/h (2 Bft) 100,00 %
03.08.2023 20:24 17,3 C 16,1 C 12,8 C 92 % 1007,3 hPa 0,2 l/m 0 min 2 min 9 W/m 12,9 km/h (3 Bft) 97,83 %
03.08.2023 20:26 17,3 C 16,1 C 12,2 C 92 % 1007,3 hPa 0,0 l/m 0 min 2 min 11 W/m 9,7 km/h (2 Bft) 97,87 %
03.08.2023 20:28 17,3 C 16,1 C 12,2 C 92 % 1007,3 hPa 0,0 l/m 0 min 2 min 14 W/m 9,7 km/h (2 Bft) 95,74 %
03.08.2023 20:30 17,2 C 16,1 C 12,2 C 92 % 1007,3 hPa 0,2 l/m 0 min 0 min 18 W/m 9,7 km/h (2 Bft) 95,74 %
03.08.2023 20:32 17,2 C 16,1 C 12,2 C 92 % 1007,3 hPa 0,0 l/m 0 min 0 min 23 W/m 6,4 km/h (2 Bft) 95,74 %
03.08.2023 20:34 17,2 C 16,1 C 12,2 C 92 % 1007,3 hPa 0,0 l/m 0 min 0 min 31 W/m 6,4 km/h (2 Bft) 97,87 %
03.08.2023 20:36 17,2 C 16,1 C 12,2 C 92 % 1007,3 hPa 0,0 l/m 0 min 0 min 35 W/m 3,2 km/h (1 Bft) 95,74 %
03.08.2023 20:38 17,1 C 16,1 C 12,2 C 92 % 1007,3 hPa 0,0 l/m 0 min 0 min 33 W/m 6,4 km/h (2 Bft) 95,65 %
03.08.2023 20:40 17,1 C 16,1 C 12,2 C 92 % 1007,3 hPa 0,0 l/m 0 min 0 min 30 W/m 3,2 km/h (1 Bft) 97,87 %
03.08.2023 20:42 17,1 C 16,1 C 12,2 C 93 % 1007,3 hPa 0,0 l/m 0 min 0 min 27 W/m 3,2 km/h (1 Bft) 97,87 %
03.08.2023 20:44 17,1 C 16,1 C 12,2 C 93 % 1007,4 hPa 0,0 l/m 0 min 0 min 25 W/m 6,4 km/h (2 Bft) 93,62 %
03.08.2023 20:46 17,0 C 16,1 C 12,2 C 93 % 1007,4 hPa 0,0 l/m 0 min 0 min 23 W/m 3,2 km/h (1 Bft) 97,87 %
03.08.2023 20:48 16,9 C 16,1 C 12,2 C 93 % 1007,5 hPa 0,0 l/m 0 min 0 min 20 W/m 6,4 km/h (2 Bft) 97,87 %
03.08.2023 20:50 16,9 C 15,6 C 12,2 C 93 % 1007,5 hPa 0,0 l/m 0 min 0 min 17 W/m 9,7 km/h (2 Bft) 95,74 %
03.08.2023 20:52 16,9 C 15,6 C 12,2 C 93 % 1007,5 hPa 0,0 l/m 0 min 0 min 14 W/m 6,4 km/h (2 Bft) 97,83 %
03.08.2023 20:54 16,8 C 15,6 C 12,2 C 93 % 1007,6 hPa 0,0 l/m 0 min 0 min 12 W/m 6,4 km/h (2 Bft) 97,87 %
03.08.2023 20:56 16,8 C 15,6 C 12,2 C 93 % 1007,6 hPa 0,0 l/m 0 min 0 min 10 W/m 9,7 km/h (2 Bft) 95,74 %
03.08.2023 20:58 16,8 C 15,6 C 12,2 C 93 % 1007,6 hPa 0,0 l/m 0 min 0 min 8 W/m 9,7 km/h (2 Bft) 97,87 %
03.08.2023 21:00 16,8 C 15,6 C 12,2 C 93 % 1007,6 hPa 0,0 l/m 0 min 0 min 7 W/m 6,4 km/h (2 Bft) 100,00 %
03.08.2023 21:02 16,7 C 15,6 C 12,2 C 93 % 1007,6 hPa 0,0 l/m 0 min 0 min 7 W/m 0,0 km/h (0 Bft) 97,87 %
03.08.2023 21:04 16,7 C 15,6 C 12,2 C 93 % 1007,6 hPa 0,0 l/m 0 min 0 min 5 W/m 3,2 km/h (1 Bft) 100,00 %
03.08.2023 21:06 16,7 C 15,6 C 12,2 C 93 % 1007,7 hPa 0,0 l/m 0 min 0 min 5 W/m 6,4 km/h (2 Bft) 100,00 %
03.08.2023 21:08 16,7 C 15,6 C 12,2 C 93 % 1007,8 hPa 0,0 l/m 0 min 0 min 5 W/m 3,2 km/h (1 Bft) 97,87 %
03.08.2023 21:10 16,7 C 15,6 C 12,2 C 93 % 1007,8 hPa 0,0 l/m 0 min 0 min 5 W/m 12,9 km/h (3 Bft) 97,87 %
03.08.2023 21:12 16,6 C 15,6 C 12,2 C 93 % 1007,8 hPa 0,0 l/m 0 min 0 min 0 W/m 3,2 km/h (1 Bft) 100,00 %
03.08.2023 21:14 16,6 C 15,6 C 12,2 C 93 % 1007,9 hPa 0,0 l/m 0 min 0 min 0 W/m 3,2 km/h (1 Bft) 95,74 %
03.08.2023 21:16 16,6 C 15,6 C 12,2 C 94 % 1007,9 hPa 0,0 l/m 0 min 0 min 0 W/m 3,2 km/h (1 Bft) 97,87 %
03.08.2023 21:18 16,6 C 15,6 C 12,2 C 94 % 1007,9 hPa 0,0 l/m 0 min 0 min 0 W/m 3,2 km/h (1 Bft) 97,83 %
03.08.2023 21:20 16,6 C 15,6 C 12,2 C 94 % 1008,0 hPa 0,0 l/m 0 min 0 min 0 W/m 0,0 km/h (0 Bft) 100,00 %
03.08.2023 21:22 16,6 C 15,6 C 12,2 C 94 % 1008,1 hPa 0,0 l/m 0 min 0 min 0 W/m 0,0 km/h (0 Bft) 100,00 %
03.08.2023 21:24 16,6 C 15,6 C 12,2 C 94 % 1008,0 hPa 0,0 l/m 0 min 0 min 0 W/m 0,0 km/h (0 Bft) 100,00 %
03.08.2023 21:26 16,6 C 15,6 C 12,2 C 94 % 1008,1 hPa 0,0 l/m 0 min 0 min 0 W/m 0,0 km/h (0 Bft) 100,00 %
03.08.2023 21:28 16,7 C 15,6 C 12,2 C 94 % 1008,1 hPa 0,0 l/m 0 min 0 min 0 W/m 0,0 km/h (0 Bft) 97,87 %
03.08.2023 21:30 16,7 C 15,6 C 12,2 C 94 % 1008,1 hPa 0,0 l/m 0 min 0 min 0 W/m 0,0 km/h (0 Bft) 100,00 %
03.08.2023 21:32 16,7 C 15,6 C 12,2 C 94 % 1008,2 hPa 0,0 l/m 0 min 0 min 0 W/m 0,0 km/h (0 Bft) 97,87 %
03.08.2023 21:34 16,7 C 15,6 C 12,2 C 95 % 1008,2 hPa 0,0 l/m 0 min 0 min 0 W/m 9,7 km/h (2 Bft) 100,00 %
03.08.2023 21:36 16,7 C 15,6 C 12,2 C 95 % 1008,2 hPa 0,0 l/m 0 min 0 min 0 W/m 6,4 km/h (2 Bft) 100,00 %
03.08.2023 21:38 16,6 C 15,6 C 12,2 C 95 % 1008,2 hPa 0,0 l/m 0 min 0 min 0 W/m 0,0 km/h (0 Bft) 100,00 %
03.08.2023 21:40 16,6 C 15,6 C 12,2 C 95 % 1008,2 hPa 0,0 l/m 0 min 0 min 0 W/m 3,2 km/h (1 Bft) 100,00 %
03.08.2023 21:42 16,6 C 15,6 C 12,2 C 95 % 1008,2 hPa 0,0 l/m 0 min 0 min 0 W/m 6,4 km/h (2 Bft) 97,87 %
03.08.2023 21:44 16,6 C 15,6 C 12,2 C 95 % 1008,2 hPa 0,0 l/m 0 min 0 min 0 W/m 6,4 km/h (2 Bft) 100,00 %
03.08.2023 21:46 16,6 C 15,6 C 12,2 C 95 % 1008,2 hPa 0,0 l/m 0 min 0 min 0 W/m 9,7 km/h (2 Bft) 95,74 %
03.08.2023 21:48 16,5 C 15,6 C 12,2 C 95 % 1008,3 hPa 0,0 l/m 0 min 0 min 0 W/m 12,9 km/h (3 Bft) 97,14 %
03.08.2023 21:50 16,4 C 15,6 C 12,2 C 95 % 1008,3 hPa 0,0 l/m 0 min 0 min 0 W/m 3,2 km/h (1 Bft) 96,55 %
03.08.2023 21:52 16,4 C 15,6 C 12,2 C 95 % 1008,4 hPa 0,0 l/m 0 min 0 min 0 W/m 3,2 km/h (1 Bft) 97,14 %
03.08.2023 21:54 16,4 C 15,6 C 12,2 C 95 % 1008,4 hPa 0,0 l/m 0 min 0 min 0 W/m 0,0 km/h (0 Bft) 94,92 %
03.08.2023 21:56 16,4 C 15,6 C 12,2 C 95 % 1008,4 hPa 0,0 l/m 0 min 0 min 0 W/m 0,0 km/h (0 Bft) 97,14 %
03.08.2023 21:58 16,4 C 15,6 C 12,2 C 95 % 1008,4 hPa 0,0 l/m 0 min 0 min 0 W/m 3,2 km/h (1 Bft) 93,22 %
03.08.2023 22:00 16,4 C 15,6 C 12,2 C 95 % 1008,5 hPa 0,0 l/m 0 min 0 min 0 W/m 6,4 km/h (2 Bft) 95,74 %
03.08.2023 22:02 16,4 C 15,6 C 12,2 C 95 % 1008,5 hPa 0,0 l/m 0 min 0 min 0 W/m 6,4 km/h (2 Bft) 94,29 %
03.08.2023 22:04 16,3 C 15,6 C 12,2 C 95 % 1008,6 hPa 0,0 l/m 0 min 0 min 0 W/m 3,2 km/h (1 Bft) 94,83 %
03.08.2023 22:06 16,3 C 15,6 C 12,2 C 95 % 1008,6 hPa 0,0 l/m 0 min 0 min 0 W/m 0,0 km/h (0 Bft) 95,74 %
03.08.2023 22:08 16,3 C 15,6 C 12,2 C 95 % 1008,6 hPa 0,0 l/m 0 min 0 min 0 W/m 3,2 km/h (1 Bft) 93,62 %
03.08.2023 22:10 16,3 C 15,6 C 12,2 C 95 % 1008,6 hPa 0,0 l/m 0 min 0 min 0 W/m 3,2 km/h (1 Bft) 95,74 %
03.08.2023 22:12 16,3 C 15,6 C 12,2 C 95 % 1008,7 hPa 0,0 l/m 0 min 0 min 0 W/m 3,2 km/h (1 Bft) 95,74 %
03.08.2023 22:14 16,3 C 15,6 C 12,2 C 95 % 1008,7 hPa 0,0 l/m 0 min 0 min 0 W/m 0,0 km/h (0 Bft) 95,74 %
03.08.2023 22:16 16,3 C 15,6 C 12,2 C 95 % 1008,7 hPa 0,0 l/m 0 min 0 min 0 W/m 0,0 km/h (0 Bft) 93,48 %
03.08.2023 22:18 16,2 C 15,6 C 12,2 C 95 % 1008,7 hPa 0,0 l/m 0 min 0 min 0 W/m 0,0 km/h (0 Bft) 93,62 %
03.08.2023 22:20 16,2 C 15,6 C 12,2 C 95 % 1008,7 hPa 0,0 l/m 0 min 0 min 0 W/m 0,0 km/h (0 Bft) 91,49 %
03.08.2023 22:22 16,2 C 15,6 C 12,2 C 95 % 1008,8 hPa 0,0 l/m 0 min 0 min 0 W/m 0,0 km/h (0 Bft) 93,62 %
03.08.2023 22:24 16,2 C 15,6 C 12,2 C 95 % 1008,8 hPa 0,0 l/m 0 min 0 min 0 W/m 0,0 km/h (0 Bft) 93,62 %
03.08.2023 22:26 16,3 C 15,6 C 12,2 C 95 % 1008,8 hPa 0,0 l/m 0 min 0 min 0 W/m 0,0 km/h (0 Bft) 91,49 %
03.08.2023 22:28 16,3 C 15,6 C 12,2 C 95 % 1008,9 hPa 0,0 l/m 0 min 0 min 0 W/m 0,0 km/h (0 Bft) 93,62 %
03.08.2023 22:30 16,3 C 15,6 C 12,2 C 95 % 1008,9 hPa 0,0 l/m 0 min 0 min 0 W/m 3,2 km/h (1 Bft) 95,65 %
03.08.2023 22:32 16,3 C 15,6 C 12,2 C 95 % 1008,9 hPa 0,0 l/m 0 min 0 min 0 W/m 3,2 km/h (1 Bft) 95,74 %
03.08.2023 22:34 16,3 C 15,6 C 12,2 C 95 % 1009,0 hPa 0,0 l/m 0 min 0 min 0 W/m 3,2 km/h (1 Bft) 93,62 %
03.08.2023 22:36 16,3 C 15,6 C 12,2 C 95 % 1009,0 hPa 0,0 l/m 0 min 0 min 0 W/m 0,0 km/h (0 Bft) 93,62 %
03.08.2023 22:38 16,3 C 15,6 C 12,2 C 95 % 1009,0 hPa 0,0 l/m 0 min 0 min 0 W/m 0,0 km/h (0 Bft) 95,74 %
03.08.2023 22:40 16,3 C 15,6 C 12,2 C 95 % 1009,0 hPa 0,0 l/m 0 min 0 min 0 W/m 3,2 km/h (1 Bft) 95,74 %
03.08.2023 22:42 16,3 C 15,6 C 12,2 C 95 % 1009,0 hPa 0,0 l/m 0 min 0 min 0 W/m 3,2 km/h (1 Bft) 95,74 %
03.08.2023 22:44 16,2 C 15,0 C 12,2 C 95 % 1009,1 hPa 0,0 l/m 0 min 0 min 0 W/m 3,2 km/h (1 Bft) 95,65 %
03.08.2023 22:46 16,2 C 15,0 C 12,2 C 95 % 1009,2 hPa 0,0 l/m 0 min 0 min 0 W/m 0,0 km/h (0 Bft) 97,87 %
03.08.2023 22:48 16,2 C 15,0 C 12,2 C 95 % 1009,2 hPa 0,0 l/m 0 min 0 min 0 W/m 0,0 km/h (0 Bft) 100,00 %
03.08.2023 22:50 16,2 C 15,0 C 12,2 C 95 % 1009,3 hPa 0,0 l/m 0 min 0 min 0 W/m 0,0 km/h (0 Bft) 100,00 %
03.08.2023 22:52 16,1 C 15,0 C 11,7 C 95 % 1009,3 hPa 0,0 l/m 0 min 0 min 0 W/m 0,0 km/h (0 Bft) 100,00 %
03.08.2023 22:54 16,1 C 15,0 C 11,7 C 95 % 1009,3 hPa 0,0 l/m 0 min 0 min 0 W/m 6,4 km/h (2 Bft) 97,87 %
03.08.2023 22:56 16,1 C 15,0 C 11,7 C 95 % 1009,3 hPa 0,0 l/m 0 min 0 min 0 W/m 3,2 km/h (1 Bft) 97,87 %
03.08.2023 22:58 16,1 C 15,0 C 11,7 C 95 % 1009,4 hPa 0,0 l/m 0 min 0 min 0 W/m 0,0 km/h (0 Bft) 97,87 %
03.08.2023 23:00 16,1 C 15,0 C 11,7 C 95 % 1009,4 hPa 0,0 l/m 0 min 0 min 0 W/m 0,0 km/h (0 Bft) 100,00 %
03.08.2023 23:02 16,1 C 15,0 C 11,7 C 95 % 1009,4 hPa 0,0 l/m 0 min 0 min 0 W/m 0,0 km/h (0 Bft) 100,00 %
03.08.2023 23:04 16,1 C 15,0 C 11,7 C 95 % 1009,4 hPa 0,0 l/m 0 min 0 min 0 W/m 3,2 km/h (1 Bft) 100,00 %
03.08.2023 23:06 16,1 C 15,0 C 11,7 C 95 % 1009,4 hPa 0,0 l/m 0 min 0 min 0 W/m 6,4 km/h (2 Bft) 100,00 %
03.08.2023 23:08 16,1 C 15,0 C 11,7 C 95 % 1009,4 hPa 0,0 l/m 0 min 0 min 0 W/m 3,2 km/h (1 Bft) 100,00 %
03.08.2023 23:10 16,1 C 15,0 C 11,7 C 95 % 1009,4 hPa 0,0 l/m 0 min 0 min 0 W/m 0,0 km/h (0 Bft) 100,00 %
03.08.2023 23:12 16,1 C 15,0 C 12,2 C 95 % 1009,4 hPa 0,0 l/m 0 min 0 min 0 W/m 3,2 km/h (1 Bft) 100,00 %
03.08.2023 23:14 16,0 C 15,0 C 12,2 C 95 % 1009,4 hPa 0,0 l/m 0 min 0 min 0 W/m 9,7 km/h (2 Bft) 100,00 %
03.08.2023 23:16 16,0 C 15,0 C 12,2 C 95 % 1009,4 hPa 0,0 l/m 0 min 0 min 0 W/m 6,4 km/h (2 Bft) 100,00 %
03.08.2023 23:18 16,0 C 15,0 C 12,2 C 95 % 1009,4 hPa 0,0 l/m 0 min 0 min 0 W/m 3,2 km/h (1 Bft) 97,87 %
03.08.2023 23:20 15,9 C 15,0 C 12,2 C 95 % 1009,5 hPa 0,0 l/m 0 min 0 min 0 W/m 0,0 km/h (0 Bft) 100,00 %
03.08.2023 23:22 15,9 C 15,0 C 12,2 C 95 % 1009,5 hPa 0,0 l/m 0 min 0 min 0 W/m 0,0 km/h (0 Bft) 100,00 %
03.08.2023 23:24 15,9 C 15,0 C 12,2 C 95 % 1009,5 hPa 0,0 l/m 0 min 0 min 0 W/m 0,0 km/h (0 Bft) 100,00 %
03.08.2023 23:26 15,9 C 15,0 C 12,2 C 95 % 1009,5 hPa 0,0 l/m 0 min 0 min 0 W/m 0,0 km/h (0 Bft) 100,00 %
03.08.2023 23:28 15,9 C 15,0 C 12,2 C 95 % 1009,5 hPa 0,0 l/m 0 min 0 min 0 W/m 0,0 km/h (0 Bft) 100,00 %
03.08.2023 23:30 15,9 C 15,0 C 12,2 C 95 % 1009,6 hPa 0,0 l/m 0 min 0 min 0 W/m 0,0 km/h (0 Bft) 100,00 %
03.08.2023 23:32 15,9 C 15,0 C 12,2 C 95 % 1009,5 hPa 0,0 l/m 0 min 0 min 0 W/m 0,0 km/h (0 Bft) 97,87 %
03.08.2023 23:34 15,9 C 15,0 C 12,2 C 95 % 1009,6 hPa 0,0 l/m 0 min 0 min 0 W/m 0,0 km/h (0 Bft) 100,00 %
03.08.2023 23:36 15,9 C 15,0 C 12,2 C 96 % 1009,6 hPa 0,0 l/m 0 min 0 min 0 W/m 3,2 km/h (1 Bft) 100,00 %
03.08.2023 23:38 15,9 C 15,0 C 12,2 C 96 % 1009,6 hPa 0,0 l/m 0 min 0 min 0 W/m 3,2 km/h (1 Bft) 100,00 %
03.08.2023 23:40 15,9 C 15,0 C 12,2 C 96 % 1009,6 hPa 0,0 l/m 0 min 0 min 0 W/m 0,0 km/h (0 Bft) 100,00 %
03.08.2023 23:42 15,9 C 15,0 C 12,2 C 96 % 1009,6 hPa 0,0 l/m 0 min 0 min 0 W/m 3,2 km/h (1 Bft) 97,87 %
03.08.2023 23:44 15,9 C 15,0 C 12,2 C 96 % 1009,6 hPa 0,0 l/m 0 min 0 min 0 W/m 3,2 km/h (1 Bft) 100,00 %
03.08.2023 23:46 15,8 C 15,0 C 12,2 C 96 % 1009,6 hPa 0,0 l/m 0 min 0 min 0 W/m 3,2 km/h (1 Bft) 100,00 %
03.08.2023 23:48 15,8 C 15,0 C 12,2 C 96 % 1009,6 hPa 0,0 l/m 0 min 0 min 0 W/m 3,2 km/h (1 Bft) 100,00 %
03.08.2023 23:50 15,8 C 15,0 C 12,2 C 96 % 1009,6 hPa 0,0 l/m 0 min 0 min 0 W/m 0,0 km/h (0 Bft) 100,00 %
03.08.2023 23:52 15,8 C 15,0 C 12,2 C 95 % 1009,6 hPa 0,0 l/m 0 min 0 min 0 W/m 3,2 km/h (1 Bft) 97,87 %
03.08.2023 23:54 15,8 C 15,0 C 12,2 C 95 % 1009,7 hPa 0,0 l/m 0 min 0 min 0 W/m 3,2 km/h (1 Bft) 100,00 %
03.08.2023 23:56 15,8 C 15,0 C 12,2 C 95 % 1009,7 hPa 0,0 l/m 0 min 0 min 0 W/m 0,0 km/h (0 Bft) 100,00 %
03.08.2023 23:58 15,8 C 15,0 C 12,2 C 95 % 1009,7 hPa 0,0 l/m 0 min 0 min 0 W/m 3,2 km/h (1 Bft) 100,00 %
_ Min-Zeit 23:46 02:58 01:22 19:22 01:38 - - - - 21:02 00:00
Minimum _ 15,8 C 14,4 C 11,1 C 85 % 991,7 hPa - - - - 0,0 km/h (0 Bft) 80,00 %
_ Max-Zeit 13:42 13:38 13:36 09:14 23:54 07:30 09:14 07:30 13:34 06:24 00:02
Maximum _ 19,6 C 22,2 C 16,1 C 98 % 1009,7 hPa 0,4 l/m 2 min 5 min 1010 W/m 77,2 km/h
SW (9 Bft)
100,00 %
Durchschnitt _ 17,2 C 16,6 C 12,7 C 93 % 999,7 hPa #5,4 l/m #1:12 h #7:02 h 160 W/m 20,5 km/h (4 Bft) 97,56 %
© 2023 W. Hausmann